Time,TemperatureF,DewpointF,PressureIn,WindDirection,WindDirectionDegrees,WindSpeedMPH,WindSpeedGustMPH,Humidity,HourlyPrecipIn,Conditions,Clouds,dailyrainin,SolarRadiationWatts/m^2,SoftwareType,DateUTC
2013-03-04 00:03:00,25.5,7.1,29.19,SE,124,7.0,7.0,45,0.00,,,0.00,0,Wunderground v.1.15,2013-03-04 06:03:00,
2013-03-04 00:04:00,25.5,7.1,29.19,ESE,122,6.0,7.0,45,0.00,,,0.00,0,Wunderground v.1.15,2013-03-04 06:04:00,
2013-03-04 00:07:00,25.5,7.1,29.19,East,96,6.0,8.0,45,0.00,,,0.00,0,Wunderground v.1.15,2013-03-04 06:07:00,
2013-03-04 00:09:00,25.5,7.1,29.18,East,98,7.0,8.0,45,0.00,,,0.00,0,Wunderground v.1.15,2013-03-04 06:09:00,
2013-03-04 00:10:00,25.5,7.1,29.19,SE,141,5.0,5.0,45,0.00,,,0.00,0,Wunderground v.1.15,2013-03-04 06:10:00,
2013-03-04 00:12:00,25.6,7.7,29.19,SE,139,5.0,7.0,46,0.00,,,0.00,0,Wunderground v.1.15,2013-03-04 06:12:00,
2013-03-04 00:15:00,25.6,7.2,29.19,SE,137,6.0,7.0,45,0.00,,,0.00,0,Wunderground v.1.15,2013-03-04 06:15:00,
2013-03-04 00:16:00,25.6,7.2,29.19,SE,136,5.0,7.0,45,0.00,,,0.00,0,Wunderground v.1.15,2013-03-04 06:16:00,
2013-03-04 00:19:00,25.6,7.2,29.19,ESE,116,10.0,10.0,45,0.00,,,0.00,0,Wunderground v.1.15,2013-03-04 06:19:00,
2013-03-04 00:20:00,25.6,7.2,29.19,ESE,116,6.0,6.0,45,0.00,,,0.00,0,Wunderground v.1.15,2013-03-04 06:20:00,
2013-03-04 00:22:00,25.6,7.2,29.19,ESE,116,8.0,8.0,45,0.00,,,0.00,0,Wunderground v.1.15,2013-03-04 06:22:00,
2013-03-04 00:24:00,25.6,7.2,29.19,SE,141,7.0,8.0,45,0.00,,,0.00,0,Wunderground v.1.15,2013-03-04 06:24:00,
2013-03-04 00:26:00,25.6,7.2,29.19,SE,145,8.0,8.0,45,0.00,,,0.00,0,Wunderground v.1.15,2013-03-04 06:26:00,
2013-03-04 00:27:00,25.6,7.2,29.19,ESE,118,5.0,11.0,45,0.00,,,0.00,0,Wunderground v.1.15,2013-03-04 06:27:00,
2013-03-04 00:31:00,25.6,6.7,29.19,SE,129,7.0,8.0,44,0.00,,,0.00,0,Wunderground v.1.15,2013-03-04 06:31:00,
2013-03-04 00:32:00,25.6,6.7,29.19,SE,129,4.0,8.0,44,0.00,,,0.00,0,Wunderground v.1.15,2013-03-04 06:32:00,
2013-03-04 00:33:00,25.6,7.2,29.19,SE,129,7.0,8.0,45,0.00,,,0.00,0,Wunderground v.1.15,2013-03-04 06:33:00,
2013-03-04 00:35:00,25.6,7.2,29.19,SE,134,8.0,8.0,45,0.00,,,0.00,0,Wunderground v.1.15,2013-03-04 06:35:00,
2013-03-04 00:40:00,25.5,7.1,29.19,SE,126,6.0,6.0,45,0.00,,,0.00,0,Wunderground v.1.15,2013-03-04 06:40:00,
2013-03-04 00:41:00,25.5,7.1,29.19,SE,126,8.0,8.0,45,0.00,,,0.00,0,Wunderground v.1.15,2013-03-04 06:41:00,
2013-03-04 00:43:00,25.5,7.1,29.19,SE,125,8.0,8.0,45,0.00,,,0.00,0,Wunderground v.1.15,2013-03-04 06:43:00,
2013-03-04 00:47:00,25.5,7.1,29.19,SE,126,6.0,8.0,45,0.00,,,0.00,0,Wunderground v.1.15,2013-03-04 06:47:00,
2013-03-04 00:49:00,25.4,7.0,29.19,ESE,123,5.0,8.0,45,0.00,,,0.00,0,Wunderground v.1.15,2013-03-04 06:49:00,
2013-03-04 00:51:00,25.4,7.0,29.19,SE,124,5.0,6.0,45,0.00,,,0.00,0,Wunderground v.1.15,2013-03-04 06:51:00,
2013-03-04 00:54:00,25.4,7.5,29.19,ESE,123,8.0,8.0,46,0.00,,,0.00,0,Wunderground v.1.15,2013-03-04 06:54:00,
2013-03-04 00:56:00,25.4,7.5,29.19,SE,132,9.0,9.0,46,0.00,,,0.00,0,Wunderground v.1.15,2013-03-04 06:56:00,
2013-03-04 00:58:00,25.4,7.0,29.19,SE,133,6.0,9.0,45,0.00,,,0.00,0,Wunderground v.1.15,2013-03-04 06:58:00,
2013-03-04 00:59:00,25.4,7.0,29.19,SE,125,10.0,10.0,45,0.00,,,0.00,0,Wunderground v.1.15,2013-03-04 06:59:00,
2013-03-04 01:04:00,25.4,7.0,29.19,SE,127,5.0,11.0,45,0.00,,,0.00,0,Wunderground v.1.15,2013-03-04 07:04:00,
2013-03-04 01:05:00,25.4,7.0,29.19,SE,127,4.0,11.0,45,0.00,,,0.00,0,Wunderground v.1.15,2013-03-04 07:05:00,
2013-03-04 01:10:00,25.4,7.0,29.19,ESE,119,5.0,5.0,45,0.00,,,0.00,0,Wunderground v.1.15,2013-03-04 07:10:00,
2013-03-04 01:11:00,25.4,7.0,29.19,ESE,119,3.0,5.0,45,0.00,,,0.00,0,Wunderground v.1.15,2013-03-04 07:11:00,
2013-03-04 01:12:00,25.4,7.0,29.19,ESE,117,7.0,7.0,45,0.00,,,0.00,0,Wunderground v.1.15,2013-03-04 07:12:00,
2013-03-04 01:15:00,25.3,7.4,29.19,ESE,120,6.0,8.0,46,0.00,,,0.00,0,Wunderground v.1.15,2013-03-04 07:15:00,
2013-03-04 01:17:00,25.4,7.5,29.19,ESE,118,6.0,8.0,46,0.00,,,0.00,0,Wunderground v.1.15,2013-03-04 07:17:00,
2013-03-04 01:19:00,25.3,7.4,29.19,ESE,118,5.0,5.0,46,0.00,,,0.00,0,Wunderground v.1.15,2013-03-04 07:19:00,
2013-03-04 01:22:00,25.3,7.4,29.19,ESE,120,7.0,7.0,46,0.00,,,0.00,0,Wunderground v.1.15,2013-03-04 07:22:00,
2013-03-04 01:24:00,25.2,7.3,29.19,ESE,122,10.0,10.0,46,0.00,,,0.00,0,Wunderground v.1.15,2013-03-04 07:24:00,
2013-03-04 01:26:00,25.2,7.3,29.19,SE,128,8.0,10.0,46,0.00,,,0.00,0,Wunderground v.1.15,2013-03-04 07:26:00,
2013-03-04 01:30:00,25.3,7.4,29.19,SE,124,6.0,7.0,46,0.00,,,0.00,0,Wunderground v.1.15,2013-03-04 07:30:00,
2013-03-04 01:31:00,25.2,7.3,29.19,ESE,116,6.0,7.0,46,0.00,,,0.00,0,Wunderground v.1.15,2013-03-04 07:31:00,
2013-03-04 01:33:00,25.2,7.3,29.18,ESE,112,6.0,7.0,46,0.00,,,0.00,0,Wunderground v.1.15,2013-03-04 07:33:00,
2013-03-04 01:35:00,25.2,7.3,29.19,ESE,109,9.0,9.0,46,0.00,,,0.00,0,Wunderground v.1.15,2013-03-04 07:35:00,
2013-03-04 01:38:00,25.2,7.3,29.18,ESE,111,11.0,11.0,46,0.00,,,0.00,0,Wunderground v.1.15,2013-03-04 07:38:00,
2013-03-04 01:40:00,25.2,7.3,29.18,ESE,116,6.0,6.0,46,0.00,,,0.00,0,Wunderground v.1.15,2013-03-04 07:40:00,
2013-03-04 01:42:00,25.2,7.3,29.18,ESE,123,5.0,10.0,46,0.00,,,0.00,0,Wunderground v.1.15,2013-03-04 07:42:00,
2013-03-04 01:45:00,25.2,7.3,29.18,ESE,119,6.0,10.0,46,0.00,,,0.00,0,Wunderground v.1.15,2013-03-04 07:45:00,
2013-03-04 01:46:00,25.2,7.3,29.19,ESE,116,4.0,10.0,46,0.00,,,0.00,0,Wunderground v.1.15,2013-03-04 07:46:00,
2013-03-04 01:47:00,25.2,7.8,29.19,ESE,116,5.0,10.0,47,0.00,,,0.00,0,Wunderground v.1.15,2013-03-04 07:47:00,
2013-03-04 01:50:00,25.2,7.8,29.18,ESE,123,2.0,2.0,47,0.00,,,0.00,0,Wunderground v.1.15,2013-03-04 07:50:00,
2013-03-04 01:54:00,25.1,7.7,29.18,ESE,119,7.0,8.0,47,0.00,,,0.00,0,Wunderground v.1.15,2013-03-04 07:54:00,
2013-03-04 01:55:00,25.1,7.7,29.18,ESE,118,8.0,8.0,47,0.00,,,0.00,0,Wunderground v.1.15,2013-03-04 07:55:00,
2013-03-04 01:56:00,25.1,7.7,29.17,SE,127,8.0,8.0,47,0.00,,,0.00,0,Wunderground v.1.15,2013-03-04 07:56:00,
2013-03-04 01:58:00,25.1,7.7,29.17,SE,124,5.0,8.0,47,0.00,,,0.00,0,Wunderground v.1.15,2013-03-04 07:58:00,
2013-03-04 01:59:00,25.1,7.7,29.18,ESE,116,6.0,6.0,47,0.00,,,0.00,0,Wunderground v.1.15,2013-03-04 07:59:00,
2013-03-04 02:00:00,25.1,7.7,29.18,ESE,116,4.0,7.0,47,0.00,,,0.00,0,Wunderground v.1.15,2013-03-04 08:00:00,
2013-03-04 02:02:00,25.1,7.7,29.18,ESE,114,6.0,13.0,47,0.00,,,0.00,0,Wunderground v.1.15,2013-03-04 08:02:00,
2013-03-04 02:03:00,25.1,7.7,29.18,ESE,108,6.0,13.0,47,0.00,,,0.00,0,Wunderground v.1.15,2013-03-04 08:03:00,
2013-03-04 02:05:00,25.0,7.6,29.18,SE,132,3.0,13.0,47,0.00,,,0.00,0,Wunderground v.1.15,2013-03-04 08:05:00,
2013-03-04 02:07:00,25.0,8.0,29.18,SE,125,5.0,13.0,48,0.00,,,0.00,0,Wunderground v.1.15,2013-03-04 08:07:00,
2013-03-04 02:08:00,25.0,7.6,29.17,ESE,123,8.0,13.0,47,0.00,,,0.00,0,Wunderground v.1.15,2013-03-04 08:08:00,
2013-03-04 02:10:00,25.0,8.0,29.18,ESE,116,7.0,9.0,48,0.00,,,0.00,0,Wunderground v.1.15,2013-03-04 08:10:00,
2013-03-04 02:12:00,25.0,7.6,29.17,ESE,115,10.0,11.0,47,0.00,,,0.00,0,Wunderground v.1.15,2013-03-04 08:12:00,
2013-03-04 02:13:00,25.0,7.6,29.17,ESE,120,5.0,12.0,47,0.00,,,0.00,0,Wunderground v.1.15,2013-03-04 08:13:00,
2013-03-04 02:15:00,25.0,7.6,29.17,SE,135,7.0,13.0,47,0.00,,,0.00,0,Wunderground v.1.15,2013-03-04 08:15:00,
2013-03-04 02:16:00,25.0,7.6,29.17,ESE,108,8.0,13.0,47,0.00,,,0.00,0,Wunderground v.1.15,2013-03-04 08:16:00,
2013-03-04 02:17:00,25.0,7.6,29.18,ESE,105,9.0,13.0,47,0.00,,,0.00,0,Wunderground v.1.15,2013-03-04 08:17:00,
2013-03-04 02:19:00,25.0,7.6,29.18,East,101,5.0,13.0,47,0.00,,,0.00,0,Wunderground v.1.15,2013-03-04 08:19:00,
2013-03-04 02:20:00,25.0,7.6,29.17,ESE,115,7.0,9.0,47,0.00,,,0.00,0,Wunderground v.1.15,2013-03-04 08:20:00,
2013-03-04 02:21:00,25.0,8.0,29.17,ESE,121,8.0,9.0,48,0.00,,,0.00,0,Wunderground v.1.15,2013-03-04 08:21:00,
2013-03-04 02:22:00,25.0,8.0,29.17,ESE,113,5.0,11.0,48,0.00,,,0.00,0,Wunderground v.1.15,2013-03-04 08:22:00,
2013-03-04 02:24:00,25.0,8.0,29.17,ESE,114,6.0,11.0,48,0.00,,,0.00,0,Wunderground v.1.15,2013-03-04 08:24:00,
2013-03-04 02:25:00,25.0,8.0,29.17,ESE,109,5.0,11.0,48,0.00,,,0.00,0,Wunderground v.1.15,2013-03-04 08:25:00,
2013-03-04 02:26:00,24.9,8.0,29.17,East,96,8.0,11.0,48,0.00,,,0.00,0,Wunderground v.1.15,2013-03-04 08:26:00,
2013-03-04 02:27:00,24.9,8.0,29.17,ESE,108,6.0,11.0,48,0.00,,,0.00,0,Wunderground v.1.15,2013-03-04 08:27:00,
2013-03-04 02:29:00,24.9,8.0,29.17,ESE,116,4.0,11.0,48,0.00,,,0.00,0,Wunderground v.1.15,2013-03-04 08:29:00,
2013-03-04 02:31:00,24.9,8.0,29.17,ESE,117,5.0,9.0,48,0.00,,,0.00,0,Wunderground v.1.15,2013-03-04 08:31:00,
2013-03-04 02:32:00,24.9,8.0,29.17,ESE,118,1.0,9.0,48,0.00,,,0.00,0,Wunderground v.1.15,2013-03-04 08:32:00,
2013-03-04 02:34:00,24.9,8.4,29.17,ESE,116,6.0,9.0,49,0.00,,,0.00,0,Wunderground v.1.15,2013-03-04 08:34:00,
2013-03-04 02:36:00,25.0,8.5,29.16,ESE,115,4.0,9.0,49,0.00,,,0.00,0,Wunderground v.1.15,2013-03-04 08:36:00,
2013-03-04 02:37:00,24.9,8.4,29.17,ESE,112,4.0,9.0,49,0.00,,,0.00,0,Wunderground v.1.15,2013-03-04 08:37:00,
2013-03-04 02:39:00,24.8,8.3,29.17,ESE,105,4.0,9.0,49,0.00,,,0.00,0,Wunderground v.1.15,2013-03-04 08:39:00,
2013-03-04 02:41:00,24.7,8.2,29.16,East,101,5.0,7.0,49,0.00,,,0.00,0,Wunderground v.1.15,2013-03-04 08:41:00,
2013-03-04 02:42:00,24.7,8.2,29.17,ESE,108,7.0,8.0,49,0.00,,,0.00,0,Wunderground v.1.15,2013-03-04 08:42:00,
2013-03-04 02:44:00,24.7,8.7,29.16,ESE,105,3.0,9.0,50,0.00,,,0.00,0,Wunderground v.1.15,2013-03-04 08:44:00,
2013-03-04 02:46:00,24.7,8.2,29.17,ESE,104,5.0,9.0,49,0.00,,,0.00,0,Wunderground v.1.15,2013-03-04 08:46:00,
2013-03-04 02:47:00,24.6,8.6,29.16,ESE,102,5.0,9.0,50,0.00,,,0.00,0,Wunderground v.1.15,2013-03-04 08:47:00,
2013-03-04 02:49:00,24.6,8.6,29.16,East,90,7.0,9.0,50,0.00,,,0.00,0,Wunderground v.1.15,2013-03-04 08:49:00,
2013-03-04 02:51:00,24.6,8.6,29.16,East,94,4.0,6.0,50,0.00,,,0.00,0,Wunderground v.1.15,2013-03-04 08:51:00,
2013-03-04 02:52:00,24.6,8.6,29.16,East,92,5.0,7.0,50,0.00,,,0.00,0,Wunderground v.1.15,2013-03-04 08:52:00,
2013-03-04 02:55:00,24.5,8.5,29.16,East,92,5.0,7.0,50,0.00,,,0.00,0,Wunderground v.1.15,2013-03-04 08:55:00,
2013-03-04 02:56:00,24.5,8.5,29.15,East,92,4.0,7.0,50,0.00,,,0.00,0,Wunderground v.1.15,2013-03-04 08:56:00,
2013-03-04 02:57:00,24.5,8.5,29.16,East,92,3.0,7.0,50,0.00,,,0.00,0,Wunderground v.1.15,2013-03-04 08:57:00,
2013-03-04 03:00:00,24.5,8.5,29.16,East,87,6.0,6.0,50,0.00,,,0.00,0,Wunderground v.1.15,2013-03-04 09:00:00,
2013-03-04 03:01:00,24.5,8.5,29.16,East,91,5.0,8.0,50,0.00,,,0.00,0,Wunderground v.1.15,2013-03-04 09:01:00,
2013-03-04 03:02:00,24.5,8.9,29.16,East,79,8.0,9.0,51,0.00,,,0.00,0,Wunderground v.1.15,2013-03-04 09:02:00,
2013-03-04 03:03:00,24.5,8.9,29.16,East,83,5.0,9.0,51,0.00,,,0.00,0,Wunderground v.1.15,2013-03-04 09:03:00,
2013-03-04 03:05:00,24.4,8.4,29.15,East,93,4.0,9.0,50,0.00,,,0.00,0,Wunderground v.1.15,2013-03-04 09:05:00,
2013-03-04 03:06:00,24.5,8.9,29.15,East,95,6.0,9.0,51,0.00,,,0.00,0,Wunderground v.1.15,2013-03-04 09:06:00,
2013-03-04 03:07:00,24.4,8.8,29.16,East,96,4.0,9.0,51,0.00,,,0.00,0,Wunderground v.1.15,2013-03-04 09:07:00,
2013-03-04 03:08:00,24.4,8.8,29.16,East,95,6.0,9.0,51,0.00,,,0.00,0,Wunderground v.1.15,2013-03-04 09:08:00,
2013-03-04 03:10:00,24.4,8.8,29.15,East,95,7.0,7.0,51,0.00,,,0.00,0,Wunderground v.1.15,2013-03-04 09:10:00,
2013-03-04 03:11:00,24.4,8.4,29.16,East,96,4.0,8.0,50,0.00,,,0.00,0,Wunderground v.1.15,2013-03-04 09:11:00,
2013-03-04 03:12:00,24.4,8.8,29.15,East,96,6.0,8.0,51,0.00,,,0.00,0,Wunderground v.1.15,2013-03-04 09:12:00,
2013-03-04 03:13:00,24.4,8.8,29.15,East,99,7.0,9.0,51,0.00,,,0.00,0,Wunderground v.1.15,2013-03-04 09:13:00,
2013-03-04 03:16:00,24.4,8.8,29.16,ESE,114,9.0,11.0,51,0.00,,,0.00,0,Wunderground v.1.15,2013-03-04 09:16:00,
2013-03-04 03:17:00,24.4,8.8,29.15,ESE,110,7.0,11.0,51,0.00,,,0.00,0,Wunderground v.1.15,2013-03-04 09:17:00,
2013-03-04 03:18:00,24.4,8.8,29.15,East,80,3.0,11.0,51,0.00,,,0.00,0,Wunderground v.1.15,2013-03-04 09:18:00,
2013-03-04 03:21:00,24.3,8.7,29.15,East,99,8.0,9.0,51,0.00,,,0.00,0,Wunderground v.1.15,2013-03-04 09:21:00,
2013-03-04 03:22:00,24.3,8.7,29.15,East,101,8.0,9.0,51,0.00,,,0.00,0,Wunderground v.1.15,2013-03-04 09:22:00,
2013-03-04 03:23:00,24.3,8.7,29.15,ESE,116,5.0,10.0,51,0.00,,,0.00,0,Wunderground v.1.15,2013-03-04 09:23:00,
2013-03-04 03:26:00,24.4,8.8,29.15,ESE,112,5.0,10.0,51,0.00,,,0.00,0,Wunderground v.1.15,2013-03-04 09:26:00,
2013-03-04 03:27:00,24.3,8.7,29.14,ENE,77,7.0,10.0,51,0.00,,,0.00,0,Wunderground v.1.15,2013-03-04 09:27:00,
2013-03-04 03:29:00,24.3,8.7,29.15,East,94,7.0,10.0,51,0.00,,,0.00,0,Wunderground v.1.15,2013-03-04 09:29:00,
2013-03-04 03:31:00,24.3,8.7,29.15,ESE,110,7.0,8.0,51,0.00,,,0.00,0,Wunderground v.1.15,2013-03-04 09:31:00,
2013-03-04 03:32:00,24.3,8.7,29.15,ESE,110,6.0,8.0,51,0.00,,,0.00,0,Wunderground v.1.15,2013-03-04 09:32:00,
2013-03-04 03:34:00,24.2,8.7,29.14,ENE,68,11.0,11.0,51,0.00,,,0.00,0,Wunderground v.1.15,2013-03-04 09:34:00,
2013-03-04 03:37:00,24.2,9.1,29.14,East,89,5.0,11.0,52,0.00,,,0.00,0,Wunderground v.1.15,2013-03-04 09:37:00,
2013-03-04 03:39:00,24.2,9.1,29.14,East,91,6.0,11.0,52,0.00,,,0.00,0,Wunderground v.1.15,2013-03-04 09:39:00,
2013-03-04 03:42:00,24.2,9.1,29.14,East,95,7.0,12.0,52,0.00,,,0.00,0,Wunderground v.1.15,2013-03-04 09:42:00,
2013-03-04 03:43:00,24.2,8.7,29.14,ENE,75,6.0,12.0,51,0.00,,,0.00,0,Wunderground v.1.15,2013-03-04 09:43:00,
2013-03-04 03:44:00,24.2,8.7,29.14,ENE,73,5.0,12.0,51,0.00,,,0.00,0,Wunderground v.1.15,2013-03-04 09:44:00,
2013-03-04 03:47:00,24.1,8.6,29.14,East,99,6.0,12.0,51,0.00,,,0.00,0,Wunderground v.1.15,2013-03-04 09:47:00,
2013-03-04 03:48:00,24.2,8.7,29.14,East,97,7.0,12.0,51,0.00,,,0.00,0,Wunderground v.1.15,2013-03-04 09:48:00,
2013-03-04 03:49:00,24.1,9.0,29.14,East,92,8.0,8.0,52,0.00,,,0.00,0,Wunderground v.1.15,2013-03-04 09:49:00,
2013-03-04 03:52:00,24.1,8.6,29.13,ENE,75,7.0,12.0,51,0.00,,,0.00,0,Wunderground v.1.15,2013-03-04 09:52:00,
2013-03-04 03:53:00,24.2,9.1,29.13,ESE,118,6.0,12.0,52,0.00,,,0.00,0,Wunderground v.1.15,2013-03-04 09:53:00,
2013-03-04 03:54:00,24.1,9.0,29.13,ENE,66,7.0,12.0,52,0.00,,,0.00,0,Wunderground v.1.15,2013-03-04 09:54:00,
2013-03-04 03:57:00,24.1,8.6,29.14,East,94,7.0,15.0,51,0.00,,,0.00,0,Wunderground v.1.15,2013-03-04 09:57:00,
2013-03-04 03:59:00,24.1,8.6,29.14,East,95,7.0,15.0,51,0.00,,,0.00,0,Wunderground v.1.15,2013-03-04 09:59:00,
2013-03-04 04:00:00,24.1,8.6,29.14,ESE,119,9.0,11.0,51,0.00,,,0.00,0,Wunderground v.1.15,2013-03-04 10:00:00,
2013-03-04 04:02:00,24.1,8.6,29.14,East,97,7.0,12.0,51,0.00,,,0.00,0,Wunderground v.1.15,2013-03-04 10:02:00,
2013-03-04 04:04:00,24.1,9.0,29.14,East,82,9.0,12.0,52,0.00,,,0.00,0,Wunderground v.1.15,2013-03-04 10:04:00,
2013-03-04 04:05:00,24.0,8.5,29.14,East,84,9.0,12.0,51,0.00,,,0.00,0,Wunderground v.1.15,2013-03-04 10:05:00,
2013-03-04 04:07:00,24.1,9.0,29.14,East,96,7.0,12.0,52,0.00,,,0.00,0,Wunderground v.1.15,2013-03-04 10:07:00,
2013-03-04 04:09:00,24.1,8.6,29.14,ESE,106,11.0,12.0,51,0.00,,,0.00,0,Wunderground v.1.15,2013-03-04 10:09:00,
2013-03-04 04:10:00,24.1,8.6,29.14,ESE,102,6.0,7.0,51,0.00,,,0.00,0,Wunderground v.1.15,2013-03-04 10:10:00,
2013-03-04 04:12:00,24.1,8.6,29.14,ESE,106,7.0,13.0,51,0.00,,,0.00,0,Wunderground v.1.15,2013-03-04 10:12:00,
2013-03-04 04:14:00,24.1,8.6,29.14,East,97,5.0,13.0,51,0.00,,,0.00,0,Wunderground v.1.15,2013-03-04 10:14:00,
2013-03-04 04:15:00,24.1,8.6,29.14,ESE,112,10.0,14.0,51,0.00,,,0.00,0,Wunderground v.1.15,2013-03-04 10:15:00,
2013-03-04 04:17:00,24.1,8.6,29.14,East,80,6.0,14.0,51,0.00,,,0.00,0,Wunderground v.1.15,2013-03-04 10:17:00,
2013-03-04 04:18:00,24.1,8.6,29.14,East,80,7.0,14.0,51,0.00,,,0.00,0,Wunderground v.1.15,2013-03-04 10:18:00,
2013-03-04 04:19:00,24.1,8.6,29.14,ESE,122,5.0,5.0,51,0.00,,,0.00,0,Wunderground v.1.15,2013-03-04 10:19:00,
2013-03-04 04:20:00,24.1,8.6,29.14,ESE,110,13.0,13.0,51,0.00,,,0.00,0,Wunderground v.1.15,2013-03-04 10:20:00,
2013-03-04 04:22:00,24.1,8.6,29.14,East,84,7.0,16.0,51,0.00,,,0.00,0,Wunderground v.1.15,2013-03-04 10:22:00,
2013-03-04 04:23:00,24.1,8.6,29.14,ENE,78,7.0,16.0,51,0.00,,,0.00,0,Wunderground v.1.15,2013-03-04 10:23:00,
2013-03-04 04:25:00,24.0,8.5,29.14,East,88,10.0,16.0,51,0.00,,,0.00,0,Wunderground v.1.15,2013-03-04 10:25:00,
2013-03-04 04:28:00,24.1,8.6,29.15,East,95,12.0,16.0,51,0.00,,,0.00,0,Wunderground v.1.15,2013-03-04 10:28:00,
2013-03-04 04:30:00,24.1,8.6,29.14,East,80,12.0,12.0,51,0.00,,,0.00,0,Wunderground v.1.15,2013-03-04 10:30:00,
2013-03-04 04:33:00,24.1,8.6,29.14,ESE,115,5.0,13.0,51,0.00,,,0.00,0,Wunderground v.1.15,2013-03-04 10:33:00,
2013-03-04 04:35:00,24.1,8.6,29.14,ESE,109,9.0,13.0,51,0.00,,,0.00,0,Wunderground v.1.15,2013-03-04 10:35:00,
2013-03-04 04:38:00,24.0,8.5,29.14,ENE,76,7.0,14.0,51,0.00,,,0.00,0,Wunderground v.1.15,2013-03-04 10:38:00,
2013-03-04 04:40:00,24.1,8.6,29.14,East,96,7.0,10.0,51,0.00,,,0.00,0,Wunderground v.1.15,2013-03-04 10:40:00,
2013-03-04 04:43:00,24.1,8.6,29.15,ESE,115,9.0,16.0,51,0.00,,,0.00,0,Wunderground v.1.15,2013-03-04 10:43:00,
2013-03-04 04:45:00,24.0,8.5,29.15,ESE,108,10.0,16.0,51,0.00,,,0.00,0,Wunderground v.1.15,2013-03-04 10:45:00,
2013-03-04 04:48:00,23.9,8.4,29.15,ESE,107,11.0,16.0,51,0.00,,,0.00,0,Wunderground v.1.15,2013-03-04 10:48:00,
2013-03-04 04:50:00,23.9,8.8,29.14,ESE,114,9.0,17.0,52,0.00,,,0.00,0,Wunderground v.1.15,2013-03-04 10:50:00,
2013-03-04 04:51:00,23.8,8.7,29.15,ESE,114,7.0,17.0,52,0.00,,,0.00,0,Wunderground v.1.15,2013-03-04 10:51:00,
2013-03-04 04:54:00,23.7,9.0,29.14,SE,134,9.0,17.0,53,0.00,,,0.00,0,Wunderground v.1.15,2013-03-04 10:54:00,
2013-03-04 04:55:00,23.6,9.4,29.14,ESE,117,10.0,17.0,54,0.00,,,0.00,0,Wunderground v.1.15,2013-03-04 10:55:00,
2013-03-04 04:56:00,23.5,9.3,29.15,ESE,120,12.0,17.0,54,0.00,,,0.00,0,Wunderground v.1.15,2013-03-04 10:56:00,
2013-03-04 04:59:00,23.3,9.9,29.15,SE,130,14.0,17.0,56,0.00,,,0.00,0,Wunderground v.1.15,2013-03-04 10:59:00,
2013-03-04 05:00:00,23.2,10.2,29.15,ESE,117,10.0,16.0,57,0.00,,,0.00,0,Wunderground v.1.15,2013-03-04 11:00:00,
2013-03-04 05:01:00,23.1,10.1,29.15,ESE,111,13.0,17.0,57,0.00,,,0.00,0,Wunderground v.1.15,2013-03-04 11:01:00,
2013-03-04 05:04:00,22.9,10.3,29.15,ESE,108,13.0,17.0,58,0.00,,,0.00,0,Wunderground v.1.15,2013-03-04 11:04:00,
2013-03-04 05:05:00,22.8,10.2,29.15,ESE,119,8.0,17.0,58,0.00,,,0.00,0,Wunderground v.1.15,2013-03-04 11:05:00,
2013-03-04 05:06:00,22.8,10.6,29.15,SE,141,11.0,17.0,59,0.00,,,0.00,0,Wunderground v.1.15,2013-03-04 11:06:00,
2013-03-04 05:09:00,22.6,10.4,29.14,ESE,116,6.0,17.0,59,0.00,,,0.00,0,Wunderground v.1.15,2013-03-04 11:09:00,
2013-03-04 05:10:00,22.5,10.7,29.14,ESE,108,9.0,11.0,60,0.00,,,0.00,0,Wunderground v.1.15,2013-03-04 11:10:00,
2013-03-04 05:11:00,22.5,10.7,29.15,East,95,10.0,11.0,60,0.00,,,0.00,0,Wunderground v.1.15,2013-03-04 11:11:00,
2013-03-04 05:14:00,22.4,11.0,29.15,SE,131,12.0,17.0,61,0.00,,,0.00,0,Wunderground v.1.15,2013-03-04 11:14:00,
2013-03-04 05:15:00,22.3,11.2,29.15,East,99,7.0,17.0,62,0.00,,,0.00,0,Wunderground v.1.15,2013-03-04 11:15:00,
2013-03-04 05:16:00,22.2,11.1,29.15,ESE,110,9.0,17.0,62,0.00,,,0.00,0,Wunderground v.1.15,2013-03-04 11:16:00,
2013-03-04 05:19:00,22.1,11.8,29.15,ESE,102,7.0,17.0,64,0.00,,,0.00,0,Wunderground v.1.15,2013-03-04 11:19:00,
2013-03-04 05:20:00,22.0,11.7,29.15,ESE,123,15.0,16.0,64,0.00,,,0.00,0,Wunderground v.1.15,2013-03-04 11:20:00,
2013-03-04 05:22:00,21.9,11.9,29.15,ESE,115,10.0,16.0,65,0.00,,,0.00,0,Wunderground v.1.15,2013-03-04 11:22:00,
2013-03-04 05:24:00,21.8,12.2,29.14,ESE,110,9.0,16.0,66,0.00,,,0.00,0,Wunderground v.1.15,2013-03-04 11:24:00,
2013-03-04 05:26:00,21.7,12.4,29.14,SE,141,6.0,16.0,67,0.00,,,0.00,0,Wunderground v.1.15,2013-03-04 11:26:00,
2013-03-04 05:27:00,21.6,12.3,29.15,SE,129,7.0,16.0,67,0.00,,,0.00,0,Wunderground v.1.15,2013-03-04 11:27:00,
2013-03-04 05:29:00,21.5,12.6,29.15,East,84,10.0,16.0,68,0.00,,,0.00,0,Wunderground v.1.15,2013-03-04 11:29:00,
2013-03-04 05:30:00,21.5,12.6,29.15,ENE,76,6.0,8.0,68,0.00,,,0.00,0,Wunderground v.1.15,2013-03-04 11:30:00,
2013-03-04 05:31:00,21.4,12.8,29.14,ESE,111,4.0,10.0,69,0.00,,,0.00,0,Wunderground v.1.15,2013-03-04 11:31:00,
2013-03-04 05:32:00,21.4,12.8,29.15,ESE,106,4.0,10.0,69,0.00,,,0.00,0,Wunderground v.1.15,2013-03-04 11:32:00,
2013-03-04 05:34:00,21.3,13.0,29.15,ESE,109,6.0,10.0,70,0.00,,,0.00,0,Wunderground v.1.15,2013-03-04 11:34:00,
2013-03-04 05:35:00,21.3,13.0,29.15,SE,139,11.0,11.0,70,0.00,,,0.00,0,Wunderground v.1.15,2013-03-04 11:35:00,
2013-03-04 05:36:00,21.2,12.9,29.15,SE,126,5.0,11.0,70,0.00,,,0.00,0,Wunderground v.1.15,2013-03-04 11:36:00,
2013-03-04 05:37:00,21.2,12.9,29.15,SE,125,9.0,11.0,70,0.00,,,0.00,0,Wunderground v.1.15,2013-03-04 11:37:00,
2013-03-04 05:39:00,21.1,13.2,29.15,ESE,113,15.0,15.0,71,0.00,,,0.00,0,Wunderground v.1.15,2013-03-04 11:39:00,
2013-03-04 05:40:00,21.0,13.1,29.15,ESE,109,12.0,15.0,71,0.00,,,0.00,0,Wunderground v.1.15,2013-03-04 11:40:00,
2013-03-04 05:41:00,21.0,13.4,29.15,ESE,108,5.0,15.0,72,0.00,,,0.00,0,Wunderground v.1.15,2013-03-04 11:41:00,
2013-03-04 05:42:00,21.0,13.4,29.15,ESE,119,5.0,15.0,72,0.00,,,0.00,0,Wunderground v.1.15,2013-03-04 11:42:00,
2013-03-04 05:44:00,20.9,13.3,29.15,East,94,5.0,15.0,72,0.00,,,0.00,0,Wunderground v.1.15,2013-03-04 11:44:00,
2013-03-04 05:45:00,20.9,13.3,29.15,East,94,8.0,15.0,72,0.00,,,0.00,0,Wunderground v.1.15,2013-03-04 11:45:00,
2013-03-04 05:46:00,20.9,13.3,29.15,ESE,114,9.0,15.0,72,0.00,,,0.00,0,Wunderground v.1.15,2013-03-04 11:46:00,
2013-03-04 05:47:00,20.9,13.6,29.15,East,89,6.0,15.0,73,0.00,,,0.00,0,Wunderground v.1.15,2013-03-04 11:47:00,
2013-03-04 05:50:00,20.9,13.6,29.15,ESE,120,6.0,7.0,73,0.00,,,0.00,0,Wunderground v.1.15,2013-03-04 11:50:00,
2013-03-04 05:51:00,20.8,13.5,29.15,ESE,118,9.0,11.0,73,0.00,,,0.00,0,Wunderground v.1.15,2013-03-04 11:51:00,
2013-03-04 05:52:00,20.8,13.8,29.15,East,96,5.0,11.0,74,0.00,,,0.00,0,Wunderground v.1.15,2013-03-04 11:52:00,
2013-03-04 05:55:00,20.8,13.8,29.15,ESE,109,9.0,11.0,74,0.00,,,0.00,0,Wunderground v.1.15,2013-03-04 11:55:00,
2013-03-04 05:57:00,20.7,13.7,29.16,ESE,110,9.0,11.0,74,0.00,,,0.00,0,Wunderground v.1.15,2013-03-04 11:57:00,
2013-03-04 06:00:00,20.7,14.0,29.15,ESE,106,7.0,11.0,75,0.00,,,0.00,0,Wunderground v.1.15,2013-03-04 12:00:00,
2013-03-04 06:01:00,20.7,14.0,29.16,ESE,104,9.0,11.0,75,0.00,,,0.00,0,Wunderground v.1.15,2013-03-04 12:01:00,
2013-03-04 06:02:00,20.6,13.9,29.15,ESE,104,7.0,11.0,75,0.00,,,0.00,0,Wunderground v.1.15,2013-03-04 12:02:00,
2013-03-04 06:05:00,20.7,14.0,29.16,East,99,8.0,14.0,75,0.00,,,0.00,0,Wunderground v.1.15,2013-03-04 12:05:00,
2013-03-04 06:06:00,20.6,14.2,29.16,ESE,121,9.0,14.0,76,0.00,,,0.00,0,Wunderground v.1.15,2013-03-04 12:06:00,
2013-03-04 06:07:00,20.6,14.2,29.15,ESE,119,6.0,16.0,76,0.00,,,0.00,0,Wunderground v.1.15,2013-03-04 12:07:00,
2013-03-04 06:08:00,20.6,14.2,29.15,ESE,111,6.0,16.0,76,0.00,,,0.00,0,Wunderground v.1.15,2013-03-04 12:08:00,
2013-03-04 06:10:00,20.7,14.3,29.16,ESE,105,6.0,8.0,76,0.00,,,0.00,0,Wunderground v.1.15,2013-03-04 12:10:00,
2013-03-04 06:11:00,20.6,14.2,29.16,East,87,4.0,9.0,76,0.00,,,0.00,0,Wunderground v.1.15,2013-03-04 12:11:00,
2013-03-04 06:12:00,20.6,14.2,29.16,East,90,8.0,10.0,76,0.00,,,0.00,0,Wunderground v.1.15,2013-03-04 12:12:00,
2013-03-04 06:13:00,20.6,14.2,29.15,ESE,116,4.0,10.0,76,0.00,,,0.00,0,Wunderground v.1.15,2013-03-04 12:13:00,
2013-03-04 06:15:00,20.6,14.2,29.16,ESE,119,7.0,12.0,76,0.00,,,0.00,0,Wunderground v.1.15,2013-03-04 12:15:00,
2013-03-04 06:17:00,20.5,14.4,29.16,East,85,5.0,12.0,77,0.00,,,0.00,0,Wunderground v.1.15,2013-03-04 12:17:00,
2013-03-04 06:18:00,20.5,14.1,29.16,ESE,108,5.0,12.0,76,0.00,,,0.00,0,Wunderground v.1.15,2013-03-04 12:18:00,
2013-03-04 06:20:00,20.5,14.4,29.15,East,97,6.0,9.0,77,0.00,,,0.00,0,Wunderground v.1.15,2013-03-04 12:20:00,
2013-03-04 06:22:00,20.5,14.4,29.16,ESE,119,9.0,10.0,77,0.00,,,0.00,0,Wunderground v.1.15,2013-03-04 12:22:00,
2013-03-04 06:23:00,20.5,14.4,29.15,East,101,7.0,10.0,77,0.00,,,0.00,0,Wunderground v.1.15,2013-03-04 12:23:00,
2013-03-04 06:25:00,20.4,14.3,29.16,ENE,69,5.0,10.0,77,0.00,,,0.00,0,Wunderground v.1.15,2013-03-04 12:25:00,
2013-03-04 06:27:00,20.5,14.4,29.15,ENE,72,4.0,10.0,77,0.00,,,0.00,0,Wunderground v.1.15,2013-03-04 12:27:00,
2013-03-04 06:28:00,20.4,14.3,29.15,ENE,72,5.0,10.0,77,0.00,,,0.00,0,Wunderground v.1.15,2013-03-04 12:28:00,
2013-03-04 06:30:00,20.5,14.4,29.15,ESE,117,8.0,11.0,77,0.00,,,0.00,0,Wunderground v.1.15,2013-03-04 12:30:00,
2013-03-04 06:33:00,20.5,14.7,29.16,East,96,5.0,11.0,78,0.00,,,0.00,0,Wunderground v.1.15,2013-03-04 12:33:00,
2013-03-04 06:34:00,20.4,14.6,29.15,East,90,6.0,11.0,78,0.00,,,0.00,0,Wunderground v.1.15,2013-03-04 12:34:00,
2013-03-04 06:36:00,20.4,14.6,29.15,ESE,119,9.0,11.0,78,0.00,,,0.00,0,Wunderground v.1.15,2013-03-04 12:36:00,
2013-03-04 06:38:00,20.4,14.6,29.15,East,83,8.0,11.0,78,0.00,,,0.00,0,Wunderground v.1.15,2013-03-04 12:38:00,
2013-03-04 06:39:00,20.4,14.6,29.15,ENE,76,5.0,11.0,78,0.00,,,0.00,0,Wunderground v.1.15,2013-03-04 12:39:00,
2013-03-04 06:41:00,20.4,14.6,29.15,East,88,6.0,8.0,78,0.00,,,0.00,0,Wunderground v.1.15,2013-03-04 12:41:00,
2013-03-04 06:43:00,20.4,14.6,29.15,ESE,109,4.0,12.0,78,0.00,,,0.00,0,Wunderground v.1.15,2013-03-04 12:43:00,
2013-03-04 06:44:00,20.4,14.6,29.15,ESE,104,5.0,12.0,78,0.00,,,0.00,0,Wunderground v.1.15,2013-03-04 12:44:00,
2013-03-04 06:46:00,20.4,14.6,29.15,ESE,114,11.0,12.0,78,0.00,,,0.00,0,Wunderground v.1.15,2013-03-04 12:46:00,
2013-03-04 06:48:00,20.4,14.6,29.15,East,98,7.0,12.0,78,0.00,,,0.00,0,Wunderground v.1.15,2013-03-04 12:48:00,
2013-03-04 06:49:00,20.4,14.6,29.15,East,87,6.0,12.0,78,0.00,,,0.00,0,Wunderground v.1.15,2013-03-04 12:49:00,
2013-03-04 06:51:00,20.4,14.6,29.15,ENE,69,9.0,10.0,78,0.00,,,0.00,0,Wunderground v.1.15,2013-03-04 12:51:00,
2013-03-04 06:53:00,20.5,15.0,29.15,East,89,8.0,14.0,79,0.00,,,0.00,0,Wunderground v.1.15,2013-03-04 12:53:00,
2013-03-04 06:54:00,20.4,14.9,29.15,East,81,7.0,14.0,79,0.00,,,0.00,0,Wunderground v.1.15,2013-03-04 12:54:00,
2013-03-04 06:56:00,20.4,14.6,29.15,ESE,123,15.0,15.0,78,0.00,,,0.00,0,Wunderground v.1.15,2013-03-04 12:56:00,
2013-03-04 06:59:00,20.3,14.8,29.14,ENE,74,6.0,17.0,79,0.00,,,0.00,0,Wunderground v.1.15,2013-03-04 12:59:00,
2013-03-04 07:00:00,20.4,14.9,29.15,ENE,75,5.0,8.0,79,0.00,,,0.00,0,Wunderground v.1.15,2013-03-04 13:00:00,
2013-03-04 07:01:00,20.4,14.9,29.14,ENE,76,7.0,8.0,79,0.00,,,0.00,0,Wunderground v.1.15,2013-03-04 13:01:00,
2013-03-04 07:04:00,20.4,14.9,29.14,ENE,69,6.0,11.0,79,0.00,,,0.00,0,Wunderground v.1.15,2013-03-04 13:04:00,
2013-03-04 07:05:00,20.4,14.9,29.14,ENE,72,8.0,11.0,79,0.00,,,0.00,0,Wunderground v.1.15,2013-03-04 13:05:00,
2013-03-04 07:07:00,20.4,14.9,29.15,ESE,118,8.0,11.0,79,0.00,,,0.00,0,Wunderground v.1.15,2013-03-04 13:07:00,
2013-03-04 07:09:00,20.4,14.9,29.15,ENE,76,9.0,12.0,79,0.00,,,0.00,0,Wunderground v.1.15,2013-03-04 13:09:00,
2013-03-04 07:10:00,20.4,14.9,29.14,ESE,106,9.0,11.0,79,0.00,,,0.00,0,Wunderground v.1.15,2013-03-04 13:10:00,
2013-03-04 07:11:00,20.4,14.9,29.15,ENE,72,7.0,11.0,79,0.00,,,0.00,0,Wunderground v.1.15,2013-03-04 13:11:00,
2013-03-04 07:12:00,20.4,14.9,29.14,ENE,66,6.0,11.0,79,0.00,,,0.00,0,Wunderground v.1.15,2013-03-04 13:12:00,
2013-03-04 07:14:00,20.4,14.9,29.15,East,82,9.0,11.0,79,0.00,,,0.00,0,Wunderground v.1.15,2013-03-04 13:14:00,
2013-03-04 07:15:00,20.4,14.9,29.15,East,95,8.0,11.0,79,0.00,,,0.00,0,Wunderground v.1.15,2013-03-04 13:15:00,
2013-03-04 07:16:00,20.4,14.9,29.15,East,101,3.0,11.0,79,0.00,,,0.00,0,Wunderground v.1.15,2013-03-04 13:16:00,
2013-03-04 07:17:00,20.4,14.9,29.15,East,97,5.0,11.0,79,0.00,,,0.00,0,Wunderground v.1.15,2013-03-04 13:17:00,
2013-03-04 07:20:00,20.4,14.9,29.15,ENE,76,13.0,13.0,79,0.00,,,0.00,0,Wunderground v.1.15,2013-03-04 13:20:00,
2013-03-04 07:21:00,20.5,15.0,29.15,ENE,66,12.0,14.0,79,0.00,,,0.00,0,Wunderground v.1.15,2013-03-04 13:21:00,
2013-03-04 07:22:00,20.4,14.9,29.14,ENE,73,10.0,14.0,79,0.00,,,0.00,0,Wunderground v.1.15,2013-03-04 13:22:00,
2013-03-04 07:25:00,20.4,14.9,29.15,ENE,65,8.0,14.0,79,0.00,,,0.00,0,Wunderground v.1.15,2013-03-04 13:25:00,
2013-03-04 07:26:00,20.5,15.0,29.15,ENE,67,7.0,14.0,79,0.00,,,0.00,0,Wunderground v.1.15,2013-03-04 13:26:00,
2013-03-04 07:27:00,20.5,15.0,29.15,East,80,6.0,14.0,79,0.00,,,0.00,0,Wunderground v.1.15,2013-03-04 13:27:00,
2013-03-04 07:30:00,20.4,14.9,29.15,East,94,5.0,10.0,79,0.00,,,0.00,0,Wunderground v.1.15,2013-03-04 13:30:00,
2013-03-04 07:31:00,20.5,15.0,29.15,East,83,3.0,10.0,79,0.00,,,0.00,0,Wunderground v.1.15,2013-03-04 13:31:00,
2013-03-04 07:32:00,20.5,15.0,29.15,ENE,78,7.0,11.0,79,0.00,,,0.00,0,Wunderground v.1.15,2013-03-04 13:32:00,
2013-03-04 07:35:00,20.4,14.9,29.15,East,93,9.0,11.0,79,0.00,,,0.00,0,Wunderground v.1.15,2013-03-04 13:35:00,
2013-03-04 07:36:00,20.5,15.0,29.15,East,85,5.0,11.0,79,0.00,,,0.00,0,Wunderground v.1.15,2013-03-04 13:36:00,
2013-03-04 07:37:00,20.5,15.0,29.15,East,87,4.0,11.0,79,0.00,,,0.00,0,Wunderground v.1.15,2013-03-04 13:37:00,
2013-03-04 07:40:00,20.5,15.0,29.15,ENE,66,5.0,9.0,79,0.00,,,0.00,0,Wunderground v.1.15,2013-03-04 13:40:00,
2013-03-04 07:41:00,20.5,15.0,29.15,East,89,12.0,12.0,79,0.00,,,0.00,0,Wunderground v.1.15,2013-03-04 13:41:00,
2013-03-04 07:43:00,20.4,14.9,29.15,ENE,68,4.0,12.0,79,0.00,,,0.00,0,Wunderground v.1.15,2013-03-04 13:43:00,
2013-03-04 07:45:00,20.5,15.0,29.15,ENE,70,5.0,12.0,79,0.00,,,0.00,0,Wunderground v.1.15,2013-03-04 13:45:00,
2013-03-04 07:46:00,20.5,15.3,29.15,ENE,75,7.0,12.0,80,0.00,,,0.00,0,Wunderground v.1.15,2013-03-04 13:46:00,
2013-03-04 07:47:00,20.5,15.0,29.16,East,91,3.0,12.0,79,0.00,,,0.00,0,Wunderground v.1.15,2013-03-04 13:47:00,
2013-03-04 07:48:00,20.6,15.1,29.15,East,88,6.0,12.0,79,0.00,,,0.00,0,Wunderground v.1.15,2013-03-04 13:48:00,
2013-03-04 07:50:00,20.5,15.0,29.16,ENE,62,3.0,11.0,79,0.00,,,0.00,0,Wunderground v.1.15,2013-03-04 13:50:00,
2013-03-04 07:51:00,20.5,15.0,29.15,ESE,120,10.0,11.0,79,0.00,,,0.00,0,Wunderground v.1.15,2013-03-04 13:51:00,
2013-03-04 07:52:00,20.5,15.3,29.16,East,79,5.0,11.0,80,0.00,,,0.00,0,Wunderground v.1.15,2013-03-04 13:52:00,
2013-03-04 07:53:00,20.5,15.0,29.16,East,91,7.0,11.0,79,0.00,,,0.00,0,Wunderground v.1.15,2013-03-04 13:53:00,
2013-03-04 07:55:00,20.6,15.1,29.16,ENE,71,4.0,11.0,79,0.00,,,0.00,0,Wunderground v.1.15,2013-03-04 13:55:00,
2013-03-04 07:56:00,20.6,15.1,29.16,ENE,74,4.0,11.0,79,0.00,,,0.00,0,Wunderground v.1.15,2013-03-04 13:56:00,
2013-03-04 07:57:00,20.6,15.1,29.16,ENE,70,10.0,11.0,79,0.00,,,0.00,0,Wunderground v.1.15,2013-03-04 13:57:00,
2013-03-04 07:58:00,20.6,15.4,29.15,East,93,3.0,11.0,80,0.00,,,0.00,0,Wunderground v.1.15,2013-03-04 13:58:00,
2013-03-04 08:01:00,20.6,15.4,29.16,ENE,74,10.0,11.0,80,0.00,,,0.00,0,Wunderground v.1.15,2013-03-04 14:01:00,
2013-03-04 08:02:00,20.6,15.1,29.16,ESE,117,7.0,15.0,79,0.00,,,0.00,0,Wunderground v.1.15,2013-03-04 14:02:00,
2013-03-04 08:03:00,20.6,15.1,29.16,East,87,7.0,15.0,79,0.00,,,0.00,0,Wunderground v.1.15,2013-03-04 14:03:00,
2013-03-04 08:06:00,20.6,15.1,29.16,East,88,7.0,15.0,79,0.00,,,0.00,0,Wunderground v.1.15,2013-03-04 14:06:00,
2013-03-04 08:07:00,20.6,15.1,29.15,ESE,110,6.0,15.0,79,0.00,,,0.00,0,Wunderground v.1.15,2013-03-04 14:07:00,
2013-03-04 08:08:00,20.7,15.2,29.17,East,81,6.0,15.0,79,0.00,,,0.00,0,Wunderground v.1.15,2013-03-04 14:08:00,
2013-03-04 08:11:00,20.6,15.1,29.16,ENE,73,5.0,8.0,79,0.00,,,0.00,0,Wunderground v.1.15,2013-03-04 14:11:00,
2013-03-04 08:12:00,20.6,15.1,29.16,East,89,6.0,9.0,79,0.00,,,0.00,0,Wunderground v.1.15,2013-03-04 14:12:00,
2013-03-04 08:13:00,20.6,15.1,29.16,East,94,5.0,9.0,79,0.00,,,0.00,0,Wunderground v.1.15,2013-03-04 14:13:00,
2013-03-04 08:16:00,20.6,15.1,29.16,ESE,107,5.0,11.0,79,0.00,,,0.00,0,Wunderground v.1.15,2013-03-04 14:16:00,
2013-03-04 08:17:00,20.6,15.1,29.16,ENE,70,7.0,11.0,79,0.00,,,0.00,0,Wunderground v.1.15,2013-03-04 14:17:00,
2013-03-04 08:18:00,20.6,15.1,29.16,ESE,110,6.0,11.0,79,0.00,,,0.00,0,Wunderground v.1.15,2013-03-04 14:18:00,
2013-03-04 08:21:00,20.7,15.2,29.16,ENE,76,8.0,11.0,79,0.00,,,0.00,0,Wunderground v.1.15,2013-03-04 14:21:00,
2013-03-04 08:22:00,20.7,15.2,29.16,ESE,105,8.0,11.0,79,0.00,,,0.00,0,Wunderground v.1.15,2013-03-04 14:22:00,
2013-03-04 08:23:00,20.7,15.2,29.16,ESE,107,7.0,11.0,79,0.00,,,0.00,0,Wunderground v.1.15,2013-03-04 14:23:00,
2013-03-04 08:24:00,20.7,15.2,29.16,East,97,7.0,11.0,79,0.00,,,0.00,0,Wunderground v.1.15,2013-03-04 14:24:00,
2013-03-04 08:27:00,20.8,15.3,29.16,East,92,6.0,13.0,79,0.00,,,0.00,0,Wunderground v.1.15,2013-03-04 14:27:00,
2013-03-04 08:28:00,20.8,15.3,29.16,East,85,10.0,13.0,79,0.00,,,0.00,0,Wunderground v.1.15,2013-03-04 14:28:00,
2013-03-04 08:29:00,20.8,15.3,29.15,East,86,7.0,13.0,79,0.00,,,0.00,0,Wunderground v.1.15,2013-03-04 14:29:00,
2013-03-04 08:32:00,20.8,15.3,29.16,ESE,107,6.0,10.0,79,0.00,,,0.00,0,Wunderground v.1.15,2013-03-04 14:32:00,
2013-03-04 08:33:00,20.8,15.3,29.16,ENE,66,7.0,10.0,79,0.00,,,0.00,0,Wunderground v.1.15,2013-03-04 14:33:00,
2013-03-04 08:34:00,20.8,15.3,29.16,ENE,71,13.0,13.0,79,0.00,,,0.00,0,Wunderground v.1.15,2013-03-04 14:34:00,
2013-03-04 08:37:00,20.9,15.4,29.16,ESE,110,11.0,14.0,79,0.00,,,0.00,0,Wunderground v.1.15,2013-03-04 14:37:00,
2013-03-04 08:38:00,20.9,15.4,29.16,ESE,103,7.0,14.0,79,0.00,,,0.00,0,Wunderground v.1.15,2013-03-04 14:38:00,
2013-03-04 08:39:00,20.9,15.4,29.16,East,97,8.0,14.0,79,0.00,,,0.00,0,Wunderground v.1.15,2013-03-04 14:39:00,
2013-03-04 08:42:00,21.0,15.5,29.16,East,83,6.0,10.0,79,0.00,,,0.00,0,Wunderground v.1.15,2013-03-04 14:42:00,
2013-03-04 08:43:00,21.0,15.5,29.16,East,83,7.0,10.0,79,0.00,,,0.00,0,Wunderground v.1.15,2013-03-04 14:43:00,
2013-03-04 08:44:00,21.0,15.8,29.16,East,86,7.0,10.0,80,0.00,,,0.00,0,Wunderground v.1.15,2013-03-04 14:44:00,
2013-03-04 08:45:00,21.0,15.5,29.16,ENE,67,7.0,10.0,79,0.00,,,0.00,0,Wunderground v.1.15,2013-03-04 14:45:00,
2013-03-04 08:47:00,21.0,15.5,29.16,ESE,103,8.0,10.0,79,0.00,,,0.00,0,Wunderground v.1.15,2013-03-04 14:47:00,
2013-03-04 08:48:00,21.1,15.6,29.16,ENE,61,6.0,10.0,79,0.00,,,0.00,0,Wunderground v.1.15,2013-03-04 14:48:00,
2013-03-04 08:49:00,21.1,15.6,29.16,ENE,61,7.0,10.0,79,0.00,,,0.00,0,Wunderground v.1.15,2013-03-04 14:49:00,
2013-03-04 08:50:00,21.1,15.6,29.16,East,84,8.0,10.0,79,0.00,,,0.00,0,Wunderground v.1.15,2013-03-04 14:50:00,
2013-03-04 08:53:00,21.0,15.5,29.16,East,92,7.0,17.0,79,0.00,,,0.00,0,Wunderground v.1.15,2013-03-04 14:53:00,
2013-03-04 08:54:00,21.1,15.6,29.16,East,87,5.0,17.0,79,0.00,,,0.00,0,Wunderground v.1.15,2013-03-04 14:54:00,
2013-03-04 08:55:00,21.1,15.6,29.16,East,84,5.0,17.0,79,0.00,,,0.00,0,Wunderground v.1.15,2013-03-04 14:55:00,
2013-03-04 08:58:00,21.1,15.6,29.16,East,90,6.0,17.0,79,0.00,,,0.00,0,Wunderground v.1.15,2013-03-04 14:58:00,
2013-03-04 08:59:00,21.1,15.6,29.17,East,87,7.0,17.0,79,0.00,,,0.00,0,Wunderground v.1.15,2013-03-04 14:59:00,
2013-03-04 09:00:00,21.2,15.7,29.17,ENE,73,10.0,10.0,79,0.00,,,0.00,0,Wunderground v.1.15,2013-03-04 15:00:00,
2013-03-04 09:03:00,21.1,15.6,29.16,East,93,7.0,11.0,79,0.00,,,0.00,0,Wunderground v.1.15,2013-03-04 15:03:00,
2013-03-04 09:04:00,21.1,15.6,29.16,ESE,104,11.0,13.0,79,0.00,,,0.00,0,Wunderground v.1.15,2013-03-04 15:04:00,
2013-03-04 09:05:00,21.2,15.7,29.16,ENE,78,5.0,13.0,79,0.00,,,0.00,0,Wunderground v.1.15,2013-03-04 15:05:00,
2013-03-04 09:08:00,21.2,15.7,29.17,ENE,68,7.0,13.0,79,0.00,,,0.00,0,Wunderground v.1.15,2013-03-04 15:08:00,
2013-03-04 09:09:00,21.2,15.7,29.16,East,93,11.0,13.0,79,0.00,,,0.00,0,Wunderground v.1.15,2013-03-04 15:09:00,
2013-03-04 09:10:00,21.1,15.6,29.16,East,83,7.0,12.0,79,0.00,,,0.00,0,Wunderground v.1.15,2013-03-04 15:10:00,
2013-03-04 09:13:00,21.2,15.7,29.16,ESE,114,10.0,17.0,79,0.00,,,0.00,0,Wunderground v.1.15,2013-03-04 15:13:00,
2013-03-04 09:14:00,21.2,15.7,29.16,ESE,110,4.0,17.0,79,0.00,,,0.00,0,Wunderground v.1.15,2013-03-04 15:14:00,
2013-03-04 09:15:00,21.2,15.7,29.16,East,83,8.0,17.0,79,0.00,,,0.00,0,Wunderground v.1.15,2013-03-04 15:15:00,
2013-03-04 09:16:00,21.2,15.7,29.16,East,85,6.0,17.0,79,0.00,,,0.00,0,Wunderground v.1.15,2013-03-04 15:16:00,
2013-03-04 09:18:00,21.3,15.8,29.16,East,101,4.0,17.0,79,0.00,,,0.00,0,Wunderground v.1.15,2013-03-04 15:18:00,
2013-03-04 09:20:00,21.3,15.8,29.16,East,99,5.0,7.0,79,0.00,,,0.00,0,Wunderground v.1.15,2013-03-04 15:20:00,
2013-03-04 09:21:00,21.3,15.8,29.16,East,85,9.0,11.0,79,0.00,,,0.00,0,Wunderground v.1.15,2013-03-04 15:21:00,
2013-03-04 09:24:00,21.4,15.9,29.16,East,100,9.0,11.0,79,0.00,,,0.00,0,Wunderground v.1.15,2013-03-04 15:24:00,
2013-03-04 09:25:00,21.4,15.9,29.16,East,93,8.0,12.0,79,0.00,,,0.00,0,Wunderground v.1.15,2013-03-04 15:25:00,
2013-03-04 09:26:00,21.4,15.9,29.16,ESE,111,6.0,12.0,79,0.00,,,0.00,0,Wunderground v.1.15,2013-03-04 15:26:00,
2013-03-04 09:29:00,21.4,15.9,29.16,East,97,8.0,12.0,79,0.00,,,0.00,0,Wunderground v.1.15,2013-03-04 15:29:00,
2013-03-04 09:30:00,21.4,15.9,29.16,East,98,6.0,8.0,79,0.00,,,0.00,0,Wunderground v.1.15,2013-03-04 15:30:00,
2013-03-04 09:31:00,21.4,15.9,29.16,ENE,64,7.0,9.0,79,0.00,,,0.00,0,Wunderground v.1.15,2013-03-04 15:31:00,
2013-03-04 09:34:00,21.5,16.0,29.16,ENE,60,9.0,13.0,79,0.00,,,0.00,0,Wunderground v.1.15,2013-03-04 15:34:00,
2013-03-04 09:35:00,21.4,15.9,29.15,ENE,68,9.0,13.0,79,0.00,,,0.00,0,Wunderground v.1.15,2013-03-04 15:35:00,
2013-03-04 09:36:00,21.5,16.0,29.15,East,87,8.0,13.0,79,0.00,,,0.00,0,Wunderground v.1.15,2013-03-04 15:36:00,
2013-03-04 09:39:00,21.4,15.9,29.15,East,101,12.0,12.0,79,0.00,,,0.00,0,Wunderground v.1.15,2013-03-04 15:39:00,
2013-03-04 09:40:00,21.4,15.9,29.15,East,80,12.0,12.0,79,0.00,,,0.00,0,Wunderground v.1.15,2013-03-04 15:40:00,
2013-03-04 09:41:00,21.5,16.0,29.16,East,81,9.0,12.0,79,0.00,,,0.00,0,Wunderground v.1.15,2013-03-04 15:41:00,
2013-03-04 09:45:00,21.5,15.7,29.15,ENE,77,4.0,12.0,78,0.00,,,0.00,0,Wunderground v.1.15,2013-03-04 15:45:00,
2013-03-04 09:46:00,21.5,16.0,29.16,East,81,10.0,12.0,79,0.00,,,0.00,0,Wunderground v.1.15,2013-03-04 15:46:00,
2013-03-04 09:50:00,21.5,15.7,29.15,East,98,9.0,15.0,78,0.00,,,0.00,0,Wunderground v.1.15,2013-03-04 15:50:00,
2013-03-04 09:51:00,21.5,15.7,29.15,East,97,8.0,15.0,78,0.00,,,0.00,0,Wunderground v.1.15,2013-03-04 15:51:00,
2013-03-04 09:55:00,21.5,15.7,29.15,ENE,73,8.0,15.0,78,0.00,,,0.00,0,Wunderground v.1.15,2013-03-04 15:55:00,
2013-03-04 09:56:00,21.5,15.7,29.15,ESE,115,10.0,15.0,78,0.00,,,0.00,0,Wunderground v.1.15,2013-03-04 15:56:00,
2013-03-04 09:57:00,21.5,15.7,29.16,ESE,105,8.0,15.0,78,0.00,,,0.00,0,Wunderground v.1.15,2013-03-04 15:57:00,
2013-03-04 10:00:00,21.5,15.7,29.16,ENE,72,10.0,13.0,78,0.00,,,0.00,0,Wunderground v.1.15,2013-03-04 16:00:00,
2013-03-04 10:01:00,21.5,15.7,29.15,ENE,70,15.0,15.0,78,0.00,,,0.00,0,Wunderground v.1.15,2013-03-04 16:01:00,
2013-03-04 10:02:00,21.6,15.8,29.15,East,96,7.0,17.0,78,0.00,,,0.00,0,Wunderground v.1.15,2013-03-04 16:02:00,
2013-03-04 10:06:00,21.5,15.7,29.15,ENE,77,11.0,17.0,78,0.00,,,0.00,0,Wunderground v.1.15,2013-03-04 16:06:00,
2013-03-04 10:07:00,21.6,15.5,29.16,ENE,76,6.0,17.0,77,0.00,,,0.00,0,Wunderground v.1.15,2013-03-04 16:07:00,
2013-03-04 10:11:00,21.5,15.4,29.15,East,100,5.0,13.0,77,0.00,,,0.00,0,Wunderground v.1.15,2013-03-04 16:11:00,
2013-03-04 10:12:00,21.5,15.4,29.15,East,95,5.0,13.0,77,0.00,,,0.00,0,Wunderground v.1.15,2013-03-04 16:12:00,
2013-03-04 10:13:00,21.5,15.7,29.16,East,89,5.0,13.0,78,0.00,,,0.00,0,Wunderground v.1.15,2013-03-04 16:13:00,
2013-03-04 10:16:00,21.6,15.5,29.16,ESE,123,13.0,15.0,77,0.00,,,0.00,0,Wunderground v.1.15,2013-03-04 16:16:00,
2013-03-04 10:17:00,21.6,15.5,29.15,East,93,8.0,15.0,77,0.00,,,0.00,0,Wunderground v.1.15,2013-03-04 16:17:00,
2013-03-04 10:18:00,21.6,15.5,29.16,ESE,114,7.0,15.0,77,0.00,,,0.00,0,Wunderground v.1.15,2013-03-04 16:18:00,
2013-03-04 10:21:00,21.7,15.6,29.15,ENE,78,10.0,15.0,77,0.00,,,0.00,0,Wunderground v.1.15,2013-03-04 16:21:00,
2013-03-04 10:22:00,21.6,15.5,29.16,ENE,67,8.0,18.0,77,0.00,,,0.00,0,Wunderground v.1.15,2013-03-04 16:22:00,
2013-03-04 10:23:00,21.7,15.6,29.16,ENE,70,13.0,18.0,77,0.00,,,0.00,0,Wunderground v.1.15,2013-03-04 16:23:00,
2013-03-04 10:26:00,21.7,15.6,29.16,ESE,117,7.0,18.0,77,0.00,,,0.00,0,Wunderground v.1.15,2013-03-04 16:26:00,
2013-03-04 10:27:00,21.7,15.3,29.16,ESE,112,5.0,18.0,76,0.00,,,0.00,0,Wunderground v.1.15,2013-03-04 16:27:00,
2013-03-04 10:28:00,21.7,15.3,29.16,East,100,8.0,18.0,76,0.00,,,0.00,0,Wunderground v.1.15,2013-03-04 16:28:00,
2013-03-04 10:32:00,21.7,15.3,29.16,East,81,11.0,13.0,76,0.00,,,0.00,0,Wunderground v.1.15,2013-03-04 16:32:00,
2013-03-04 10:33:00,21.7,15.6,29.16,East,91,8.0,20.0,77,0.00,,,0.00,0,Wunderground v.1.15,2013-03-04 16:33:00,
2013-03-04 10:37:00,21.7,15.3,29.16,ESE,107,10.0,20.0,76,0.00,,,0.00,0,Wunderground v.1.15,2013-03-04 16:37:00,
2013-03-04 10:39:00,21.7,15.3,29.16,East,95,6.0,20.0,76,0.00,,,0.00,0,Wunderground v.1.15,2013-03-04 16:39:00,
2013-03-04 10:42:00,21.7,15.3,29.15,East,87,9.0,17.0,76,0.00,,,0.00,0,Wunderground v.1.15,2013-03-04 16:42:00,
2013-03-04 10:43:00,21.6,15.2,29.15,ESE,113,7.0,17.0,76,0.00,,,0.00,0,Wunderground v.1.15,2013-03-04 16:43:00,
2013-03-04 10:44:00,21.7,15.3,29.15,East,96,5.0,17.0,76,0.00,,,0.00,0,Wunderground v.1.15,2013-03-04 16:44:00,
2013-03-04 10:47:00,21.7,15.3,29.15,ESE,102,6.0,17.0,76,0.00,,,0.00,0,Wunderground v.1.15,2013-03-04 16:47:00,
2013-03-04 10:48:00,21.7,15.3,29.16,ESE,106,10.0,17.0,76,0.00,,,0.00,0,Wunderground v.1.15,2013-03-04 16:48:00,
2013-03-04 10:49:00,21.7,15.3,29.15,East,84,9.0,10.0,76,0.00,,,0.00,0,Wunderground v.1.15,2013-03-04 16:49:00,
2013-03-04 10:52:00,21.7,15.3,29.16,ENE,69,11.0,15.0,76,0.00,,,0.00,0,Wunderground v.1.15,2013-03-04 16:52:00,
2013-03-04 10:53:00,21.7,15.3,29.15,East,80,9.0,18.0,76,0.00,,,0.00,0,Wunderground v.1.15,2013-03-04 16:53:00,
2013-03-04 10:54:00,21.7,15.3,29.15,ENE,74,12.0,18.0,76,0.00,,,0.00,0,Wunderground v.1.15,2013-03-04 16:54:00,
2013-03-04 10:57:00,21.8,15.4,29.16,ENE,72,11.0,18.0,76,0.00,,,0.00,0,Wunderground v.1.15,2013-03-04 16:57:00,
2013-03-04 10:58:00,21.7,15.3,29.15,ENE,78,7.0,18.0,76,0.00,,,0.00,0,Wunderground v.1.15,2013-03-04 16:58:00,
2013-03-04 10:59:00,21.7,15.3,29.15,East,79,6.0,18.0,76,0.00,,,0.00,0,Wunderground v.1.15,2013-03-04 16:59:00,
2013-03-04 11:02:00,21.7,15.3,29.15,East,93,7.0,15.0,76,0.00,,,0.00,0,Wunderground v.1.15,2013-03-04 17:02:00,
2013-03-04 11:04:00,21.7,15.3,29.15,ESE,112,12.0,19.0,76,0.00,,,0.00,0,Wunderground v.1.15,2013-03-04 17:04:00,
2013-03-04 11:05:00,21.7,15.3,29.16,ENE,75,7.0,19.0,76,0.00,,,0.00,0,Wunderground v.1.15,2013-03-04 17:05:00,
2013-03-04 11:08:00,21.7,15.3,29.15,East,95,11.0,19.0,76,0.00,,,0.00,0,Wunderground v.1.15,2013-03-04 17:08:00,
2013-03-04 11:09:00,21.7,15.3,29.16,East,93,7.0,19.0,76,0.00,,,0.00,0,Wunderground v.1.15,2013-03-04 17:09:00,
2013-03-04 11:10:00,21.7,15.3,29.16,ENE,70,9.0,15.0,76,0.00,,,0.00,0,Wunderground v.1.15,2013-03-04 17:10:00,
2013-03-04 11:13:00,21.7,15.3,29.15,East,101,14.0,17.0,76,0.00,,,0.00,0,Wunderground v.1.15,2013-03-04 17:13:00,
2013-03-04 11:14:00,21.7,15.3,29.15,East,99,10.0,17.0,76,0.00,,,0.00,0,Wunderground v.1.15,2013-03-04 17:14:00,
2013-03-04 11:15:00,21.7,15.3,29.15,ENE,67,9.0,17.0,76,0.00,,,0.00,0,Wunderground v.1.15,2013-03-04 17:15:00,
2013-03-04 11:18:00,21.7,15.3,29.15,East,94,7.0,17.0,76,0.00,,,0.00,0,Wunderground v.1.15,2013-03-04 17:18:00,
2013-03-04 11:19:00,21.7,15.3,29.15,East,100,12.0,17.0,76,0.00,,,0.00,0,Wunderground v.1.15,2013-03-04 17:19:00,
2013-03-04 11:20:00,21.6,15.2,29.15,East,90,10.0,22.0,76,0.00,,,0.00,0,Wunderground v.1.15,2013-03-04 17:20:00,
2013-03-04 11:23:00,21.7,15.3,29.15,East,88,10.0,22.0,76,0.00,,,0.00,0,Wunderground v.1.15,2013-03-04 17:23:00,
2013-03-04 11:24:00,21.6,15.2,29.15,ESE,104,13.0,22.0,76,0.00,,,0.00,0,Wunderground v.1.15,2013-03-04 17:24:00,
2013-03-04 11:25:00,21.6,15.2,29.15,East,79,6.0,22.0,76,0.00,,,0.00,0,Wunderground v.1.15,2013-03-04 17:25:00,
2013-03-04 11:28:00,21.5,15.1,29.16,East,79,13.0,22.0,76,0.00,,,0.00,0,Wunderground v.1.15,2013-03-04 17:28:00,
2013-03-04 11:29:00,21.5,15.1,29.15,East,92,11.0,11.0,76,0.00,,,0.00,0,Wunderground v.1.15,2013-03-04 17:29:00,
2013-03-04 11:30:00,21.5,15.1,29.15,East,91,8.0,11.0,76,0.00,,,0.00,0,Wunderground v.1.15,2013-03-04 17:30:00,
2013-03-04 11:33:00,21.4,15.0,29.15,East,99,11.0,11.0,76,0.00,,,0.00,0,Wunderground v.1.15,2013-03-04 17:33:00,
2013-03-04 11:34:00,21.5,15.1,29.15,ESE,105,9.0,15.0,76,0.00,,,0.00,0,Wunderground v.1.15,2013-03-04 17:34:00,
2013-03-04 11:35:00,21.5,15.4,29.15,East,94,8.0,15.0,77,0.00,,,0.00,0,Wunderground v.1.15,2013-03-04 17:35:00,
2013-03-04 11:36:00,21.5,15.1,29.15,East,93,9.0,15.0,76,0.00,,,0.00,0,Wunderground v.1.15,2013-03-04 17:36:00,
2013-03-04 11:38:00,21.6,15.2,29.15,ESE,123,13.0,15.0,76,0.00,,,0.00,0,Wunderground v.1.15,2013-03-04 17:38:00,
2013-03-04 11:40:00,21.7,15.3,29.15,ENE,74,9.0,11.0,76,0.00,,,0.00,0,Wunderground v.1.15,2013-03-04 17:40:00,
2013-03-04 11:41:00,21.7,15.3,29.15,East,91,8.0,11.0,76,0.00,,,0.00,0,Wunderground v.1.15,2013-03-04 17:41:00,
2013-03-04 11:44:00,21.8,15.4,29.15,ESE,118,10.0,13.0,76,0.00,,,0.00,0,Wunderground v.1.15,2013-03-04 17:44:00,
2013-03-04 11:45:00,21.8,15.4,29.15,East,98,10.0,13.0,76,0.00,,,0.00,0,Wunderground v.1.15,2013-03-04 17:45:00,
2013-03-04 11:46:00,21.8,15.1,29.15,East,86,7.0,20.0,75,0.00,,,0.00,0,Wunderground v.1.15,2013-03-04 17:46:00,
2013-03-04 11:49:00,21.9,15.2,29.15,ESE,115,12.0,12.0,75,0.00,,,0.00,0,Wunderground v.1.15,2013-03-04 17:49:00,
2013-03-04 11:50:00,21.9,15.2,29.15,ESE,112,6.0,14.0,75,0.00,,,0.00,0,Wunderground v.1.15,2013-03-04 17:50:00,
2013-03-04 11:51:00,22.0,15.3,29.15,ESE,102,5.0,14.0,75,0.00,,,0.00,0,Wunderground v.1.15,2013-03-04 17:51:00,
2013-03-04 11:54:00,22.1,15.1,29.15,ESE,110,9.0,14.0,74,0.00,,,0.00,0,Wunderground v.1.15,2013-03-04 17:54:00,
2013-03-04 11:55:00,22.1,15.1,29.15,ESE,111,9.0,14.0,74,0.00,,,0.00,0,Wunderground v.1.15,2013-03-04 17:55:00,
2013-03-04 11:56:00,22.1,15.1,29.15,East,84,9.0,14.0,74,0.00,,,0.00,0,Wunderground v.1.15,2013-03-04 17:56:00,
2013-03-04 12:00:00,22.2,14.9,29.14,ESE,104,8.0,9.0,73,0.00,,,0.00,0,Wunderground v.1.15,2013-03-04 18:00:00,
2013-03-04 12:01:00,22.3,15.0,29.14,East,97,12.0,12.0,73,0.00,,,0.00,0,Wunderground v.1.15,2013-03-04 18:01:00,
2013-03-04 12:02:00,22.3,15.0,29.14,ESE,104,10.0,12.0,73,0.00,,,0.00,0,Wunderground v.1.15,2013-03-04 18:02:00,
2013-03-04 12:05:00,22.3,15.0,29.15,ESE,118,14.0,19.0,73,0.00,,,0.00,0,Wunderground v.1.15,2013-03-04 18:05:00,
2013-03-04 12:06:00,22.3,14.6,29.15,East,97,11.0,19.0,72,0.00,,,0.00,0,Wunderground v.1.15,2013-03-04 18:06:00,
2013-03-04 12:07:00,22.3,14.6,29.14,ESE,103,9.0,19.0,72,0.00,,,0.00,0,Wunderground v.1.15,2013-03-04 18:07:00,
2013-03-04 12:10:00,22.4,14.7,29.15,East,101,6.0,11.0,72,0.00,,,0.00,0,Wunderground v.1.15,2013-03-04 18:10:00,
2013-03-04 12:12:00,22.4,14.7,29.14,ESE,117,9.0,18.0,72,0.00,,,0.00,0,Wunderground v.1.15,2013-03-04 18:12:00,
2013-03-04 12:15:00,22.5,14.5,29.14,East,81,9.0,20.0,71,0.00,,,0.00,0,Wunderground v.1.15,2013-03-04 18:15:00,
2013-03-04 12:16:00,22.5,14.5,29.15,East,93,7.0,20.0,71,0.00,,,0.00,0,Wunderground v.1.15,2013-03-04 18:16:00,
2013-03-04 12:17:00,22.5,14.5,29.14,East,94,9.0,20.0,71,0.00,,,0.00,0,Wunderground v.1.15,2013-03-04 18:17:00,
2013-03-04 12:20:00,22.6,14.3,29.14,ESE,109,13.0,16.0,70,0.00,,,0.00,0,Wunderground v.1.15,2013-03-04 18:20:00,
2013-03-04 12:21:00,22.6,14.3,29.15,ESE,102,11.0,16.0,70,0.00,,,0.00,0,Wunderground v.1.15,2013-03-04 18:21:00,
2013-03-04 12:22:00,22.6,14.3,29.14,SE,127,14.0,16.0,70,0.00,,,0.00,0,Wunderground v.1.15,2013-03-04 18:22:00,
2013-03-04 12:26:00,22.8,13.8,29.14,East,86,11.0,17.0,68,0.00,,,0.00,0,Wunderground v.1.15,2013-03-04 18:26:00,
2013-03-04 12:27:00,22.7,13.7,29.15,East,101,7.0,17.0,68,0.00,,,0.00,0,Wunderground v.1.15,2013-03-04 18:27:00,
2013-03-04 12:29:00,22.8,13.8,29.15,East,89,11.0,17.0,68,0.00,,,0.00,0,Wunderground v.1.15,2013-03-04 18:29:00,
2013-03-04 12:30:00,22.8,13.8,29.15,ESE,112,8.0,8.0,68,0.00,,,0.00,0,Wunderground v.1.15,2013-03-04 18:30:00,
2013-03-04 12:34:00,22.9,13.6,29.15,ESE,120,8.0,13.0,67,0.00,,,0.00,0,Wunderground v.1.15,2013-03-04 18:34:00,
2013-03-04 12:35:00,23.0,13.7,29.15,East,91,9.0,13.0,67,0.00,,,0.00,0,Wunderground v.1.15,2013-03-04 18:35:00,
2013-03-04 12:39:00,23.0,13.0,29.15,ESE,102,9.0,10.0,65,0.00,,,0.00,0,Wunderground v.1.15,2013-03-04 18:39:00,
2013-03-04 12:40:00,23.0,13.0,29.15,East,79,14.0,14.0,65,0.00,,,0.00,0,Wunderground v.1.15,2013-03-04 18:40:00,
2013-03-04 12:44:00,23.1,12.7,29.15,SE,127,5.0,16.0,64,0.00,,,0.00,0,Wunderground v.1.15,2013-03-04 18:44:00,
2013-03-04 12:45:00,23.1,12.7,29.15,SE,124,6.0,16.0,64,0.00,,,0.00,0,Wunderground v.1.15,2013-03-04 18:45:00,
2013-03-04 12:46:00,23.2,12.8,29.15,ESE,115,5.0,16.0,64,0.00,,,0.00,0,Wunderground v.1.15,2013-03-04 18:46:00,
2013-03-04 12:49:00,23.3,12.6,29.15,East,98,6.0,6.0,63,0.00,,,0.00,0,Wunderground v.1.15,2013-03-04 18:49:00,
2013-03-04 12:50:00,23.3,12.6,29.15,East,89,7.0,7.0,63,0.00,,,0.00,0,Wunderground v.1.15,2013-03-04 18:50:00,
2013-03-04 12:51:00,23.3,12.6,29.16,East,90,7.0,9.0,63,0.00,,,0.00,0,Wunderground v.1.15,2013-03-04 18:51:00,
2013-03-04 12:55:00,23.4,11.9,29.15,East,100,8.0,16.0,61,0.00,,,0.00,0,Wunderground v.1.15,2013-03-04 18:55:00,
2013-03-04 12:56:00,23.4,11.9,29.15,SE,128,13.0,20.0,61,0.00,,,0.00,0,Wunderground v.1.15,2013-03-04 18:56:00,
2013-03-04 13:00:00,23.5,11.6,29.15,East,91,8.0,8.0,60,0.00,,,0.00,0,Wunderground v.1.15,2013-03-04 19:00:00,
2013-03-04 13:01:00,23.5,11.6,29.15,East,83,8.0,11.0,60,0.00,,,0.00,0,Wunderground v.1.15,2013-03-04 19:01:00,
2013-03-04 13:05:00,23.6,11.0,29.15,East,91,8.0,18.0,58,0.00,,,0.00,0,Wunderground v.1.15,2013-03-04 19:05:00,
2013-03-04 13:06:00,23.5,10.9,29.14,East,89,8.0,18.0,58,0.00,,,0.00,0,Wunderground v.1.15,2013-03-04 19:06:00,
2013-03-04 13:07:00,23.6,11.0,29.14,East,95,10.0,18.0,58,0.00,,,0.00,0,Wunderground v.1.15,2013-03-04 19:07:00,
2013-03-04 13:10:00,23.6,10.6,29.14,ESE,115,10.0,10.0,57,0.00,,,0.00,0,Wunderground v.1.15,2013-03-04 19:10:00,
2013-03-04 13:12:00,23.6,10.6,29.15,ESE,103,9.0,18.0,57,0.00,,,0.00,0,Wunderground v.1.15,2013-03-04 19:12:00,
2013-03-04 13:13:00,23.7,10.7,29.14,ESE,111,6.0,18.0,57,0.00,,,0.00,0,Wunderground v.1.15,2013-03-04 19:13:00,
2013-03-04 13:15:00,23.7,10.7,29.15,SE,141,14.0,18.0,57,0.00,,,0.00,0,Wunderground v.1.15,2013-03-04 19:15:00,
2013-03-04 13:17:00,23.8,10.4,29.15,East,101,10.0,18.0,56,0.00,,,0.00,0,Wunderground v.1.15,2013-03-04 19:17:00,
2013-03-04 13:18:00,23.8,10.4,29.15,East,95,7.0,18.0,56,0.00,,,0.00,0,Wunderground v.1.15,2013-03-04 19:18:00,
2013-03-04 13:21:00,23.8,10.0,29.14,East,95,11.0,15.0,55,0.00,,,0.00,0,Wunderground v.1.15,2013-03-04 19:21:00,
2013-03-04 13:22:00,23.8,10.0,29.14,ESE,107,9.0,15.0,55,0.00,,,0.00,0,Wunderground v.1.15,2013-03-04 19:22:00,
2013-03-04 13:23:00,23.8,10.0,29.15,ESE,117,11.0,15.0,55,0.00,,,0.00,0,Wunderground v.1.15,2013-03-04 19:23:00,
2013-03-04 13:26:00,23.8,9.6,29.14,ESE,118,12.0,20.0,54,0.00,,,0.00,0,Wunderground v.1.15,2013-03-04 19:26:00,
2013-03-04 13:27:00,23.9,9.6,29.15,East,95,9.0,20.0,54,0.00,,,0.00,0,Wunderground v.1.15,2013-03-04 19:27:00,
2013-03-04 13:28:00,23.9,9.6,29.15,East,96,8.0,20.0,54,0.00,,,0.00,0,Wunderground v.1.15,2013-03-04 19:28:00,
2013-03-04 13:31:00,23.9,9.2,29.14,ESE,121,12.0,15.0,53,0.00,,,0.00,0,Wunderground v.1.15,2013-03-04 19:31:00,
2013-03-04 13:33:00,24.0,9.3,29.14,ESE,108,10.0,19.0,53,0.00,,,0.00,0,Wunderground v.1.15,2013-03-04 19:33:00,
2013-03-04 13:36:00,24.0,8.9,29.14,ESE,112,14.0,19.0,52,0.00,,,0.00,0,Wunderground v.1.15,2013-03-04 19:36:00,
2013-03-04 13:38:00,24.0,8.9,29.13,ESE,112,13.0,19.0,52,0.00,,,0.00,0,Wunderground v.1.15,2013-03-04 19:38:00,
2013-03-04 13:41:00,24.0,8.5,29.14,ESE,104,4.0,16.0,51,0.00,,,0.00,0,Wunderground v.1.15,2013-03-04 19:41:00,
2013-03-04 13:43:00,24.1,8.6,29.14,East,93,9.0,16.0,51,0.00,,,0.00,0,Wunderground v.1.15,2013-03-04 19:43:00,
2013-03-04 13:47:00,24.2,8.2,29.14,East,88,8.0,16.0,50,0.00,,,0.00,0,Wunderground v.1.15,2013-03-04 19:47:00,
2013-03-04 13:48:00,24.2,8.2,29.14,ESE,109,6.0,16.0,50,0.00,,,0.00,0,Wunderground v.1.15,2013-03-04 19:48:00,
2013-03-04 13:49:00,24.2,8.2,29.14,ESE,121,12.0,16.0,50,0.00,,,0.00,0,Wunderground v.1.15,2013-03-04 19:49:00,
2013-03-04 13:52:00,24.3,7.9,29.14,ESE,114,9.0,19.0,49,0.00,,,0.00,0,Wunderground v.1.15,2013-03-04 19:52:00,
2013-03-04 13:53:00,24.3,7.9,29.14,ESE,107,7.0,19.0,49,0.00,,,0.00,0,Wunderground v.1.15,2013-03-04 19:53:00,
2013-03-04 13:54:00,24.3,8.3,29.14,ESE,107,6.0,19.0,50,0.00,,,0.00,0,Wunderground v.1.15,2013-03-04 19:54:00,
2013-03-04 13:57:00,24.3,7.9,29.14,East,88,7.0,19.0,49,0.00,,,0.00,0,Wunderground v.1.15,2013-03-04 19:57:00,
2013-03-04 13:58:00,24.4,7.9,29.14,East,90,7.0,19.0,49,0.00,,,0.00,0,Wunderground v.1.15,2013-03-04 19:58:00,
2013-03-04 13:59:00,24.4,8.4,29.14,ESE,114,7.0,19.0,50,0.00,,,0.00,0,Wunderground v.1.15,2013-03-04 19:59:00,
2013-03-04 14:03:00,24.4,7.9,29.14,SE,125,11.0,12.0,49,0.00,,,0.00,0,Wunderground v.1.15,2013-03-04 20:03:00,
2013-03-04 14:04:00,24.4,7.9,29.14,ENE,67,9.0,16.0,49,0.00,,,0.00,0,Wunderground v.1.15,2013-03-04 20:04:00,
2013-03-04 14:05:00,24.4,7.9,29.14,SE,127,8.0,16.0,49,0.00,,,0.00,0,Wunderground v.1.15,2013-03-04 20:05:00,
2013-03-04 14:08:00,24.4,7.9,29.15,SE,130,16.0,16.0,49,0.00,,,0.00,0,Wunderground v.1.15,2013-03-04 20:08:00,
2013-03-04 14:09:00,24.4,7.5,29.14,ESE,110,12.0,17.0,48,0.00,,,0.00,0,Wunderground v.1.15,2013-03-04 20:09:00,
2013-03-04 14:10:00,24.4,7.5,29.14,ESE,107,11.0,12.0,48,0.00,,,0.00,0,Wunderground v.1.15,2013-03-04 20:10:00,
2013-03-04 14:13:00,24.4,7.5,29.15,ESE,108,7.0,20.0,48,0.00,,,0.00,0,Wunderground v.1.15,2013-03-04 20:13:00,
2013-03-04 14:14:00,24.4,7.5,29.14,ESE,116,7.0,20.0,48,0.00,,,0.00,0,Wunderground v.1.15,2013-03-04 20:14:00,
2013-03-04 14:15:00,24.4,7.5,29.15,ESE,116,7.0,20.0,48,0.00,,,0.00,0,Wunderground v.1.15,2013-03-04 20:15:00,
2013-03-04 14:18:00,24.5,7.6,29.14,ESE,112,6.0,20.0,48,0.00,,,0.00,0,Wunderground v.1.15,2013-03-04 20:18:00,
2013-03-04 14:19:00,24.6,8.1,29.15,ESE,109,15.0,15.0,49,0.00,,,0.00,0,Wunderground v.1.15,2013-03-04 20:19:00,
2013-03-04 14:20:00,24.6,7.7,29.15,ESE,113,8.0,15.0,48,0.00,,,0.00,0,Wunderground v.1.15,2013-03-04 20:20:00,
2013-03-04 14:24:00,24.7,8.2,29.15,ENE,76,7.0,15.0,49,0.00,,,0.00,0,Wunderground v.1.15,2013-03-04 20:24:00,
2013-03-04 14:25:00,24.6,8.1,29.15,ENE,78,6.0,15.0,49,0.00,,,0.00,0,Wunderground v.1.15,2013-03-04 20:25:00,
2013-03-04 14:30:00,24.4,7.9,29.15,ESE,103,7.0,11.0,49,0.00,,,0.00,0,Wunderground v.1.15,2013-03-04 20:30:00,
2013-03-04 14:31:00,24.4,7.9,29.15,East,82,10.0,11.0,49,0.00,,,0.00,0,Wunderground v.1.15,2013-03-04 20:31:00,
2013-03-04 14:35:00,24.3,7.9,29.15,ESE,105,6.0,13.0,49,0.00,,,0.00,0,Wunderground v.1.15,2013-03-04 20:35:00,
2013-03-04 14:36:00,24.4,7.9,29.15,East,87,7.0,13.0,49,0.00,,,0.00,0,Wunderground v.1.15,2013-03-04 20:36:00,
2013-03-04 14:40:00,24.3,8.3,29.15,ESE,122,12.0,16.0,50,0.00,,,0.00,0,Wunderground v.1.15,2013-03-04 20:40:00,
2013-03-04 14:42:00,24.3,8.3,29.15,ESE,108,7.0,16.0,50,0.00,,,0.00,0,Wunderground v.1.15,2013-03-04 20:42:00,
2013-03-04 14:45:00,24.3,8.3,29.15,ESE,115,10.0,16.0,50,0.00,,,0.00,0,Wunderground v.1.15,2013-03-04 20:45:00,
2013-03-04 14:46:00,24.4,8.4,29.15,SE,134,7.0,16.0,50,0.00,,,0.00,0,Wunderground v.1.15,2013-03-04 20:46:00,
2013-03-04 14:47:00,24.3,8.7,29.15,ESE,111,6.0,16.0,51,0.00,,,0.00,0,Wunderground v.1.15,2013-03-04 20:47:00,
2013-03-04 14:50:00,24.4,8.8,29.15,ESE,120,4.0,7.0,51,0.00,,,0.00,0,Wunderground v.1.15,2013-03-04 20:50:00,
2013-03-04 14:51:00,24.4,8.8,29.15,ESE,120,11.0,12.0,51,0.00,,,0.00,0,Wunderground v.1.15,2013-03-04 20:51:00,
2013-03-04 14:52:00,24.4,8.8,29.16,East,97,9.0,14.0,51,0.00,,,0.00,0,Wunderground v.1.15,2013-03-04 20:52:00,
2013-03-04 14:55:00,24.4,8.4,29.16,ESE,117,7.0,17.0,50,0.00,,,0.00,0,Wunderground v.1.15,2013-03-04 20:55:00,
2013-03-04 14:56:00,24.4,8.8,29.15,ESE,118,7.0,17.0,51,0.00,,,0.00,0,Wunderground v.1.15,2013-03-04 20:56:00,
2013-03-04 14:57:00,24.4,8.8,29.15,East,101,7.0,17.0,51,0.00,,,0.00,0,Wunderground v.1.15,2013-03-04 20:57:00,
2013-03-04 15:00:00,24.4,8.8,29.15,SE,124,9.0,13.0,51,0.00,,,0.00,0,Wunderground v.1.15,2013-03-04 21:00:00,
2013-03-04 15:01:00,24.3,8.3,29.15,ESE,123,11.0,15.0,50,0.00,,,0.00,0,Wunderground v.1.15,2013-03-04 21:01:00,
2013-03-04 15:02:00,24.3,8.7,29.15,East,91,11.0,15.0,51,0.00,,,0.00,0,Wunderground v.1.15,2013-03-04 21:02:00,
2013-03-04 15:05:00,24.3,8.3,29.15,East,86,7.0,15.0,50,0.00,,,0.00,0,Wunderground v.1.15,2013-03-04 21:05:00,
2013-03-04 15:06:00,24.2,8.7,29.15,East,83,7.0,15.0,51,0.00,,,0.00,0,Wunderground v.1.15,2013-03-04 21:06:00,
2013-03-04 15:07:00,24.2,8.7,29.15,ENE,76,8.0,15.0,51,0.00,,,0.00,0,Wunderground v.1.15,2013-03-04 21:07:00,
2013-03-04 15:10:00,24.2,8.7,29.15,ESE,106,4.0,9.0,51,0.00,,,0.00,0,Wunderground v.1.15,2013-03-04 21:10:00,
2013-03-04 15:11:00,24.2,9.1,29.14,ESE,106,5.0,9.0,52,0.00,,,0.00,0,Wunderground v.1.15,2013-03-04 21:11:00,
2013-03-04 15:13:00,24.2,9.1,29.15,ENE,67,5.0,9.0,52,0.00,,,0.00,0,Wunderground v.1.15,2013-03-04 21:13:00,
2013-03-04 15:15:00,24.2,9.1,29.15,ENE,70,9.0,14.0,52,0.00,,,0.00,0,Wunderground v.1.15,2013-03-04 21:15:00,
2013-03-04 15:16:00,24.2,9.1,29.15,East,84,9.0,14.0,52,0.00,,,0.00,0,Wunderground v.1.15,2013-03-04 21:16:00,
2013-03-04 15:18:00,24.2,9.1,29.15,ENE,76,7.0,14.0,52,0.00,,,0.00,0,Wunderground v.1.15,2013-03-04 21:18:00,
2013-03-04 15:21:00,24.2,9.1,29.16,ESE,109,5.0,13.0,52,0.00,,,0.00,0,Wunderground v.1.15,2013-03-04 21:21:00,
2013-03-04 15:23:00,24.1,9.0,29.16,ESE,110,11.0,13.0,52,0.00,,,0.00,0,Wunderground v.1.15,2013-03-04 21:23:00,
2013-03-04 15:26:00,24.1,9.0,29.16,ESE,120,4.0,13.0,52,0.00,,,0.00,0,Wunderground v.1.15,2013-03-04 21:26:00,
2013-03-04 15:28:00,24.1,9.0,29.16,East,99,7.0,13.0,52,0.00,,,0.00,0,Wunderground v.1.15,2013-03-04 21:28:00,
2013-03-04 15:31:00,24.1,9.0,29.16,ESE,105,14.0,15.0,52,0.00,,,0.00,0,Wunderground v.1.15,2013-03-04 21:31:00,
2013-03-04 15:33:00,23.9,8.8,29.16,ESE,112,8.0,16.0,52,0.00,,,0.00,0,Wunderground v.1.15,2013-03-04 21:33:00,
2013-03-04 15:36:00,23.9,8.8,29.16,East,81,8.0,18.0,52,0.00,,,0.00,0,Wunderground v.1.15,2013-03-04 21:36:00,
2013-03-04 15:38:00,23.9,9.2,29.16,East,93,7.0,18.0,53,0.00,,,0.00,0,Wunderground v.1.15,2013-03-04 21:38:00,
2013-03-04 15:41:00,23.8,9.1,29.17,East,88,5.0,13.0,53,0.00,,,0.00,0,Wunderground v.1.15,2013-03-04 21:41:00,
2013-03-04 15:42:00,23.8,9.1,29.16,East,88,5.0,13.0,53,0.00,,,0.00,0,Wunderground v.1.15,2013-03-04 21:42:00,
2013-03-04 15:43:00,23.8,9.6,29.16,ESE,119,5.0,13.0,54,0.00,,,0.00,0,Wunderground v.1.15,2013-03-04 21:43:00,
2013-03-04 15:46:00,23.8,9.6,29.16,ESE,122,4.0,13.0,54,0.00,,,0.00,0,Wunderground v.1.15,2013-03-04 21:46:00,
2013-03-04 15:47:00,23.8,9.6,29.16,ESE,119,9.0,13.0,54,0.00,,,0.00,0,Wunderground v.1.15,2013-03-04 21:47:00,
2013-03-04 15:49:00,23.8,9.6,29.16,ENE,70,6.0,13.0,54,0.00,,,0.00,0,Wunderground v.1.15,2013-03-04 21:49:00,
2013-03-04 15:52:00,23.8,10.0,29.16,SE,125,6.0,9.0,55,0.00,,,0.00,0,Wunderground v.1.15,2013-03-04 21:52:00,
2013-03-04 15:54:00,23.8,10.0,29.16,ESE,112,3.0,9.0,55,0.00,,,0.00,0,Wunderground v.1.15,2013-03-04 21:54:00,
2013-03-04 15:57:00,23.8,10.4,29.17,ENE,68,7.0,12.0,56,0.00,,,0.00,0,Wunderground v.1.15,2013-03-04 21:57:00,
2013-03-04 15:59:00,23.8,10.4,29.17,East,90,10.0,10.0,56,0.00,,,0.00,0,Wunderground v.1.15,2013-03-04 21:59:00,
2013-03-04 16:02:00,23.8,10.4,29.16,East,101,8.0,12.0,56,0.00,,,0.00,0,Wunderground v.1.15,2013-03-04 22:02:00,
2013-03-04 16:04:00,23.8,10.4,29.16,East,82,6.0,12.0,56,0.00,,,0.00,0,Wunderground v.1.15,2013-03-04 22:04:00,
2013-03-04 16:07:00,23.8,10.8,29.16,SE,127,7.0,14.0,57,0.00,,,0.00,0,Wunderground v.1.15,2013-03-04 22:07:00,
2013-03-04 16:08:00,23.8,10.8,29.17,ESE,102,6.0,14.0,57,0.00,,,0.00,0,Wunderground v.1.15,2013-03-04 22:08:00,
2013-03-04 16:09:00,23.8,10.8,29.17,ENE,76,6.0,8.0,57,0.00,,,0.00,0,Wunderground v.1.15,2013-03-04 22:09:00,
2013-03-04 16:12:00,23.8,10.8,29.17,ENE,77,6.0,10.0,57,0.00,,,0.00,0,Wunderground v.1.15,2013-03-04 22:12:00,
2013-03-04 16:13:00,23.8,10.8,29.17,ENE,73,7.0,12.0,57,0.00,,,0.00,0,Wunderground v.1.15,2013-03-04 22:13:00,
2013-03-04 16:15:00,23.8,11.2,29.17,East,97,7.0,12.0,58,0.00,,,0.00,0,Wunderground v.1.15,2013-03-04 22:15:00,
2013-03-04 16:17:00,23.8,11.2,29.17,ENE,72,8.0,12.0,58,0.00,,,0.00,0,Wunderground v.1.15,2013-03-04 22:17:00,
2013-03-04 16:18:00,23.8,11.2,29.17,ENE,70,6.0,12.0,58,0.00,,,0.00,0,Wunderground v.1.15,2013-03-04 22:18:00,
2013-03-04 16:19:00,23.8,11.2,29.17,ESE,109,7.0,12.0,58,0.00,,,0.00,0,Wunderground v.1.15,2013-03-04 22:19:00,
2013-03-04 16:20:00,23.8,11.5,29.17,ESE,107,4.0,9.0,59,0.00,,,0.00,0,Wunderground v.1.15,2013-03-04 22:20:00,
2013-03-04 16:22:00,23.8,11.5,29.16,ESE,107,6.0,9.0,59,0.00,,,0.00,0,Wunderground v.1.15,2013-03-04 22:22:00,
2013-03-04 16:23:00,23.8,11.5,29.16,ESE,110,14.0,14.0,59,0.00,,,0.00,0,Wunderground v.1.15,2013-03-04 22:23:00,
2013-03-04 16:24:00,23.8,11.5,29.17,ENE,70,8.0,14.0,59,0.00,,,0.00,0,Wunderground v.1.15,2013-03-04 22:24:00,
2013-03-04 16:25:00,23.8,11.5,29.17,ESE,105,9.0,14.0,59,0.00,,,0.00,0,Wunderground v.1.15,2013-03-04 22:25:00,
2013-03-04 16:27:00,23.8,11.9,29.17,ESE,108,5.0,14.0,60,0.00,,,0.00,0,Wunderground v.1.15,2013-03-04 22:27:00,
2013-03-04 16:28:00,23.8,11.9,29.16,East,100,6.0,14.0,60,0.00,,,0.00,0,Wunderground v.1.15,2013-03-04 22:28:00,
2013-03-04 16:29:00,23.8,11.9,29.16,ESE,123,8.0,14.0,60,0.00,,,0.00,0,Wunderground v.1.15,2013-03-04 22:29:00,
2013-03-04 16:30:00,23.8,11.9,29.17,ESE,116,10.0,11.0,60,0.00,,,0.00,0,Wunderground v.1.15,2013-03-04 22:30:00,
2013-03-04 16:32:00,23.8,11.9,29.16,ESE,120,3.0,11.0,60,0.00,,,0.00,0,Wunderground v.1.15,2013-03-04 22:32:00,
2013-03-04 16:33:00,23.8,11.9,29.16,East,79,8.0,11.0,60,0.00,,,0.00,0,Wunderground v.1.15,2013-03-04 22:33:00,
2013-03-04 16:34:00,23.9,12.0,29.16,ENE,73,5.0,11.0,60,0.00,,,0.00,0,Wunderground v.1.15,2013-03-04 22:34:00,
2013-03-04 16:36:00,23.9,12.0,29.16,East,89,4.0,11.0,60,0.00,,,0.00,0,Wunderground v.1.15,2013-03-04 22:36:00,
2013-03-04 16:37:00,23.8,11.9,29.16,ESE,121,6.0,13.0,60,0.00,,,0.00,0,Wunderground v.1.15,2013-03-04 22:37:00,
2013-03-04 16:38:00,23.9,12.4,29.16,ESE,120,7.0,13.0,61,0.00,,,0.00,0,Wunderground v.1.15,2013-03-04 22:38:00,
2013-03-04 16:39:00,23.9,12.0,29.16,ESE,108,5.0,13.0,60,0.00,,,0.00,0,Wunderground v.1.15,2013-03-04 22:39:00,
2013-03-04 16:41:00,23.9,12.4,29.16,East,96,8.0,11.0,61,0.00,,,0.00,0,Wunderground v.1.15,2013-03-04 22:41:00,
2013-03-04 16:42:00,23.9,12.4,29.16,ESE,117,7.0,11.0,61,0.00,,,0.00,0,Wunderground v.1.15,2013-03-04 22:42:00,
2013-03-04 16:43:00,23.9,12.4,29.16,ESE,103,5.0,11.0,61,0.00,,,0.00,0,Wunderground v.1.15,2013-03-04 22:43:00,
2013-03-04 16:44:00,23.9,12.4,29.16,East,95,7.0,11.0,61,0.00,,,0.00,0,Wunderground v.1.15,2013-03-04 22:44:00,
2013-03-04 16:46:00,23.9,12.4,29.17,East,87,7.0,11.0,61,0.00,,,0.00,0,Wunderground v.1.15,2013-03-04 22:46:00,
2013-03-04 16:47:00,23.9,12.4,29.16,ENE,78,6.0,11.0,61,0.00,,,0.00,0,Wunderground v.1.15,2013-03-04 22:47:00,
2013-03-04 16:49:00,23.9,12.4,29.16,ESE,107,7.0,12.0,61,0.00,,,0.00,0,Wunderground v.1.15,2013-03-04 22:49:00,
2013-03-04 16:51:00,23.8,12.7,29.16,ENE,65,8.0,9.0,62,0.00,,,0.00,0,Wunderground v.1.15,2013-03-04 22:51:00,
2013-03-04 16:54:00,23.8,12.7,29.16,ENE,75,6.0,9.0,62,0.00,,,0.00,0,Wunderground v.1.15,2013-03-04 22:54:00,
2013-03-04 16:56:00,23.8,12.7,29.16,East,100,8.0,11.0,62,0.00,,,0.00,0,Wunderground v.1.15,2013-03-04 22:56:00,
2013-03-04 16:59:00,23.8,13.0,29.16,ESE,103,6.0,15.0,63,0.00,,,0.00,0,Wunderground v.1.15,2013-03-04 22:59:00,
2013-03-04 17:00:00,23.8,13.0,29.16,ENE,70,7.0,13.0,63,0.00,,,0.00,0,Wunderground v.1.15,2013-03-04 23:00:00,
2013-03-04 17:01:00,23.7,12.9,29.16,East,99,6.0,13.0,63,0.00,,,0.00,0,Wunderground v.1.15,2013-03-04 23:01:00,
2013-03-04 17:04:00,23.8,13.0,29.16,ESE,111,5.0,13.0,63,0.00,,,0.00,0,Wunderground v.1.15,2013-03-04 23:04:00,
2013-03-04 17:05:00,23.7,12.9,29.16,ESE,110,3.0,13.0,63,0.00,,,0.00,0,Wunderground v.1.15,2013-03-04 23:05:00,
2013-03-04 17:07:00,23.8,13.4,29.16,ENE,78,4.0,13.0,64,0.00,,,0.00,0,Wunderground v.1.15,2013-03-04 23:07:00,
2013-03-04 17:09:00,23.7,13.3,29.16,East,85,0.0,0.0,64,0.00,,,0.00,0,Wunderground v.1.15,2013-03-04 23:09:00,
2013-03-04 17:10:00,23.7,13.3,29.16,East,81,7.0,8.0,64,0.00,,,0.00,0,Wunderground v.1.15,2013-03-04 23:10:00,
2013-03-04 17:12:00,23.7,13.3,29.16,ENE,70,6.0,8.0,64,0.00,,,0.00,0,Wunderground v.1.15,2013-03-04 23:12:00,
2013-03-04 17:14:00,23.7,13.3,29.17,East,96,3.0,9.0,64,0.00,,,0.00,0,Wunderground v.1.15,2013-03-04 23:14:00,
2013-03-04 17:15:00,23.7,13.3,29.17,ENE,65,3.0,9.0,64,0.00,,,0.00,0,Wunderground v.1.15,2013-03-04 23:15:00,
2013-03-04 17:17:00,23.6,13.2,29.17,SE,124,3.0,11.0,64,0.00,,,0.00,0,Wunderground v.1.15,2013-03-04 23:17:00,
2013-03-04 17:19:00,23.6,13.5,29.17,ENE,75,5.0,5.0,65,0.00,,,0.00,0,Wunderground v.1.15,2013-03-04 23:19:00,
2013-03-04 17:20:00,23.6,13.5,29.16,ESE,106,5.0,8.0,65,0.00,,,0.00,0,Wunderground v.1.15,2013-03-04 23:20:00,
2013-03-04 17:22:00,23.6,13.5,29.17,ESE,103,5.0,8.0,65,0.00,,,0.00,0,Wunderground v.1.15,2013-03-04 23:22:00,
2013-03-04 17:24:00,23.6,13.5,29.16,East,83,9.0,10.0,65,0.00,,,0.00,0,Wunderground v.1.15,2013-03-04 23:24:00,
2013-03-04 17:25:00,23.6,13.5,29.16,ENE,68,7.0,11.0,65,0.00,,,0.00,0,Wunderground v.1.15,2013-03-04 23:25:00,
2013-03-04 17:27:00,23.6,13.5,29.16,East,96,5.0,11.0,65,0.00,,,0.00,0,Wunderground v.1.15,2013-03-04 23:27:00,
2013-03-04 17:30:00,23.6,13.5,29.17,ENE,72,4.0,5.0,65,0.00,,,0.00,0,Wunderground v.1.15,2013-03-04 23:30:00,
2013-03-04 17:31:00,23.5,13.8,29.17,ENE,73,5.0,6.0,66,0.00,,,0.00,0,Wunderground v.1.15,2013-03-04 23:31:00,
2013-03-04 17:32:00,23.5,13.8,29.17,East,83,5.0,11.0,66,0.00,,,0.00,0,Wunderground v.1.15,2013-03-04 23:32:00,
2013-03-04 17:35:00,23.5,13.8,29.17,ENE,75,6.0,11.0,66,0.00,,,0.00,0,Wunderground v.1.15,2013-03-04 23:35:00,
2013-03-04 17:36:00,23.5,13.8,29.16,East,83,8.0,11.0,66,0.00,,,0.00,0,Wunderground v.1.15,2013-03-04 23:36:00,
2013-03-04 17:37:00,23.5,13.8,29.16,ESE,105,6.0,14.0,66,0.00,,,0.00,0,Wunderground v.1.15,2013-03-04 23:37:00,
2013-03-04 17:40:00,23.5,13.8,29.17,ENE,65,8.0,10.0,66,0.00,,,0.00,0,Wunderground v.1.15,2013-03-04 23:40:00,
2013-03-04 17:41:00,23.5,13.8,29.16,ENE,68,6.0,10.0,66,0.00,,,0.00,0,Wunderground v.1.15,2013-03-04 23:41:00,
2013-03-04 17:43:00,23.4,13.7,29.16,East,82,6.0,11.0,66,0.00,,,0.00,0,Wunderground v.1.15,2013-03-04 23:43:00,
2013-03-04 17:45:00,23.4,14.0,29.17,East,84,5.0,11.0,67,0.00,,,0.00,0,Wunderground v.1.15,2013-03-04 23:45:00,
2013-03-04 17:46:00,23.4,14.0,29.17,ENE,64,3.0,11.0,67,0.00,,,0.00,0,Wunderground v.1.15,2013-03-04 23:46:00,
2013-03-04 17:48:00,23.3,14.0,29.17,NE,55,6.0,11.0,67,0.00,,,0.00,0,Wunderground v.1.15,2013-03-04 23:48:00,
2013-03-04 17:50:00,23.3,14.0,29.17,ENE,57,5.0,7.0,67,0.00,,,0.00,0,Wunderground v.1.15,2013-03-04 23:50:00,
2013-03-04 17:51:00,23.1,13.8,29.17,ENE,71,6.0,9.0,67,0.00,,,0.00,0,Wunderground v.1.15,2013-03-04 23:51:00,
2013-03-04 17:53:00,23.0,13.7,29.17,ENE,66,5.0,9.0,67,0.00,,,0.00,0,Wunderground v.1.15,2013-03-04 23:53:00,
2013-03-04 17:55:00,22.9,13.9,29.17,ENE,63,4.0,9.0,68,0.00,,,0.00,0,Wunderground v.1.15,2013-03-04 23:55:00,
2013-03-04 17:56:00,22.9,13.9,29.17,NE,55,3.0,9.0,68,0.00,,,0.00,0,Wunderground v.1.15,2013-03-04 23:56:00,
2013-03-04 17:58:00,22.8,13.8,29.17,NE,55,5.0,9.0,68,0.00,,,0.00,0,Wunderground v.1.15,2013-03-04 23:58:00,
2013-03-04 18:00:00,22.7,14.1,29.17,ENE,57,4.0,6.0,69,0.00,,,0.00,0,Wunderground v.1.15,2013-03-05 00:00:00,
2013-03-04 18:02:00,22.7,14.1,29.17,ENE,57,5.0,6.0,69,0.00,,,0.00,0,Wunderground v.1.15,2013-03-05 00:02:00,
2013-03-04 18:03:00,22.7,14.1,29.17,ENE,60,6.0,8.0,69,0.00,,,0.00,0,Wunderground v.1.15,2013-03-05 00:03:00,
2013-03-04 18:06:00,22.5,13.9,29.17,ENE,63,3.0,8.0,69,0.00,,,0.00,0,Wunderground v.1.15,2013-03-05 00:06:00,
2013-03-04 18:07:00,22.5,14.2,29.17,ENE,63,5.0,8.0,70,0.00,,,0.00,0,Wunderground v.1.15,2013-03-05 00:07:00,
2013-03-04 18:08:00,22.5,14.2,29.17,ENE,63,4.0,8.0,70,0.00,,,0.00,0,Wunderground v.1.15,2013-03-05 00:08:00,
2013-03-04 18:11:00,22.5,14.2,29.17,ENE,62,3.0,7.0,70,0.00,,,0.00,0,Wunderground v.1.15,2013-03-05 00:11:00,
2013-03-04 18:12:00,22.5,14.2,29.17,NE,53,4.0,7.0,70,0.00,,,0.00,0,Wunderground v.1.15,2013-03-05 00:12:00,
2013-03-04 18:13:00,22.5,14.5,29.17,NE,55,6.0,7.0,71,0.00,,,0.00,0,Wunderground v.1.15,2013-03-05 00:13:00,
2013-03-04 18:16:00,22.5,14.5,29.18,ENE,57,5.0,8.0,71,0.00,,,0.00,0,Wunderground v.1.15,2013-03-05 00:16:00,
2013-03-04 18:17:00,22.4,14.4,29.17,NE,56,4.0,8.0,71,0.00,,,0.00,0,Wunderground v.1.15,2013-03-05 00:17:00,
2013-03-04 18:19:00,22.5,14.5,29.18,NE,56,2.0,8.0,71,0.00,,,0.00,0,Wunderground v.1.15,2013-03-05 00:19:00,
2013-03-04 18:21:00,22.4,14.4,29.17,NE,56,5.0,6.0,71,0.00,,,0.00,0,Wunderground v.1.15,2013-03-05 00:21:00,
2013-03-04 18:22:00,22.5,14.5,29.17,ENE,58,3.0,6.0,71,0.00,,,0.00,0,Wunderground v.1.15,2013-03-05 00:22:00,
2013-03-04 18:24:00,22.4,14.4,29.18,ENE,57,5.0,6.0,71,0.00,,,0.00,0,Wunderground v.1.15,2013-03-05 00:24:00,
2013-03-04 18:26:00,22.4,14.4,29.18,ENE,59,2.0,10.0,71,0.00,,,0.00,0,Wunderground v.1.15,2013-03-05 00:26:00,
2013-03-04 18:27:00,22.4,14.4,29.18,ENE,59,4.0,10.0,71,0.00,,,0.00,0,Wunderground v.1.15,2013-03-05 00:27:00,
2013-03-04 18:29:00,22.4,14.7,29.17,ENE,60,4.0,10.0,72,0.00,,,0.00,0,Wunderground v.1.15,2013-03-05 00:29:00,
2013-03-04 18:31:00,22.4,14.7,29.17,ENE,60,2.0,6.0,72,0.00,,,0.00,0,Wunderground v.1.15,2013-03-05 00:31:00,
2013-03-04 18:32:00,22.4,14.7,29.17,ENE,60,3.0,6.0,72,0.00,,,0.00,0,Wunderground v.1.15,2013-03-05 00:32:00,
2013-03-04 18:34:00,22.4,14.7,29.17,ENE,60,3.0,6.0,72,0.00,,,0.00,0,Wunderground v.1.15,2013-03-05 00:34:00,
2013-03-04 18:37:00,22.4,14.7,29.18,ENE,60,4.0,7.0,72,0.00,,,0.00,0,Wunderground v.1.15,2013-03-05 00:37:00,
2013-03-04 18:38:00,22.4,14.7,29.18,ENE,61,4.0,7.0,72,0.00,,,0.00,0,Wunderground v.1.15,2013-03-05 00:38:00,
2013-03-04 18:39:00,22.4,14.7,29.17,ENE,59,8.0,8.0,72,0.00,,,0.00,0,Wunderground v.1.15,2013-03-05 00:39:00,
2013-03-04 18:42:00,22.3,15.0,29.18,ENE,61,3.0,8.0,73,0.00,,,0.00,0,Wunderground v.1.15,2013-03-05 00:42:00,
2013-03-04 18:43:00,22.4,14.7,29.17,ENE,62,5.0,8.0,72,0.00,,,0.00,0,Wunderground v.1.15,2013-03-05 00:43:00,
2013-03-04 18:44:00,22.3,14.6,29.18,ENE,62,5.0,8.0,72,0.00,,,0.00,0,Wunderground v.1.15,2013-03-05 00:44:00,
2013-03-04 18:47:00,22.3,15.0,29.17,ENE,62,7.0,9.0,73,0.00,,,0.00,0,Wunderground v.1.15,2013-03-05 00:47:00,
2013-03-04 18:48:00,22.3,15.0,29.18,ESE,118,5.0,10.0,73,0.00,,,0.00,0,Wunderground v.1.15,2013-03-05 00:48:00,
2013-03-04 18:49:00,22.4,14.7,29.18,ENE,70,5.0,5.0,72,0.00,,,0.00,0,Wunderground v.1.15,2013-03-05 00:49:00,
2013-03-04 18:52:00,22.3,15.0,29.18,ENE,66,3.0,9.0,73,0.00,,,0.00,0,Wunderground v.1.15,2013-03-05 00:52:00,
2013-03-04 18:53:00,22.4,15.1,29.18,ENE,63,4.0,9.0,73,0.00,,,0.00,0,Wunderground v.1.15,2013-03-05 00:53:00,
2013-03-04 18:54:00,22.4,15.1,29.19,ENE,63,3.0,9.0,73,0.00,,,0.00,0,Wunderground v.1.15,2013-03-05 00:54:00,
2013-03-04 18:57:00,22.4,15.1,29.19,NE,55,3.0,9.0,73,0.00,,,0.00,0,Wunderground v.1.15,2013-03-05 00:57:00,
2013-03-04 18:58:00,22.4,15.1,29.18,NE,55,3.0,9.0,73,0.00,,,0.00,0,Wunderground v.1.15,2013-03-05 00:58:00,
2013-03-04 19:00:00,22.3,15.0,29.19,NE,56,6.0,7.0,73,0.00,,,0.00,0,Wunderground v.1.15,2013-03-05 01:00:00,
2013-03-04 19:02:00,22.4,15.1,29.18,ENE,71,4.0,10.0,73,0.00,,,0.00,0,Wunderground v.1.15,2013-03-05 01:02:00,
2013-03-04 19:03:00,22.4,15.1,29.18,ENE,71,3.0,10.0,73,0.00,,,0.00,0,Wunderground v.1.15,2013-03-05 01:03:00,
2013-03-04 19:05:00,22.4,15.1,29.18,ENE,66,7.0,10.0,73,0.00,,,0.00,0,Wunderground v.1.15,2013-03-05 01:05:00,
2013-03-04 19:07:00,22.4,15.4,29.19,ENE,59,6.0,10.0,74,0.00,,,0.00,0,Wunderground v.1.15,2013-03-05 01:07:00,
2013-03-04 19:08:00,22.4,15.1,29.18,ENE,60,4.0,10.0,73,0.00,,,0.00,0,Wunderground v.1.15,2013-03-05 01:08:00,
2013-03-04 19:10:00,22.4,15.4,29.19,ENE,60,3.0,6.0,74,0.00,,,0.00,0,Wunderground v.1.15,2013-03-05 01:10:00,
2013-03-04 19:13:00,22.4,15.4,29.18,ENE,59,2.0,7.0,74,0.00,,,0.00,0,Wunderground v.1.15,2013-03-05 01:13:00,
2013-03-04 19:14:00,22.4,15.4,29.19,ENE,59,6.0,8.0,74,0.00,,,0.00,0,Wunderground v.1.15,2013-03-05 01:14:00,
2013-03-04 19:15:00,22.3,15.3,29.19,ENE,65,6.0,11.0,74,0.00,,,0.00,0,Wunderground v.1.15,2013-03-05 01:15:00,
2013-03-04 19:18:00,22.3,15.3,29.19,ENE,59,5.0,11.0,74,0.00,,,0.00,0,Wunderground v.1.15,2013-03-05 01:18:00,
2013-03-04 19:19:00,22.2,15.2,29.19,ENE,61,2.0,11.0,74,0.00,,,0.00,0,Wunderground v.1.15,2013-03-05 01:19:00,
2013-03-04 19:20:00,22.2,15.2,29.19,ENE,61,4.0,5.0,74,0.00,,,0.00,0,Wunderground v.1.15,2013-03-05 01:20:00,
2013-03-04 19:23:00,22.1,15.1,29.18,ENE,63,5.0,7.0,74,0.00,,,0.00,0,Wunderground v.1.15,2013-03-05 01:23:00,
2013-03-04 19:24:00,22.1,15.4,29.18,ENE,63,5.0,7.0,75,0.00,,,0.00,0,Wunderground v.1.15,2013-03-05 01:24:00,
2013-03-04 19:25:00,22.2,15.5,29.19,ENE,63,4.0,7.0,75,0.00,,,0.00,0,Wunderground v.1.15,2013-03-05 01:25:00,
2013-03-04 19:29:00,22.1,15.4,29.18,ESE,112,6.0,9.0,75,0.00,,,0.00,0,Wunderground v.1.15,2013-03-05 01:29:00,
2013-03-04 19:30:00,22.1,15.4,29.19,ESE,107,2.0,4.0,75,0.00,,,0.00,0,Wunderground v.1.15,2013-03-05 01:30:00,
2013-03-04 19:34:00,22.1,15.7,29.19,ESE,106,4.0,6.0,76,0.00,,,0.00,0,Wunderground v.1.15,2013-03-05 01:34:00,
2013-03-04 19:35:00,22.1,15.7,29.19,East,99,4.0,6.0,76,0.00,,,0.00,0,Wunderground v.1.15,2013-03-05 01:35:00,
2013-03-04 19:40:00,22.2,15.8,29.20,East,99,4.0,4.0,76,0.00,,,0.00,0,Wunderground v.1.15,2013-03-05 01:40:00,
2013-03-04 19:41:00,22.1,15.7,29.20,East,97,3.0,4.0,76,0.00,,,0.00,0,Wunderground v.1.15,2013-03-05 01:41:00,
2013-03-04 19:45:00,22.2,15.8,29.20,East,97,2.0,5.0,76,0.00,,,0.00,0,Wunderground v.1.15,2013-03-05 01:45:00,
2013-03-04 19:46:00,22.2,15.8,29.19,East,97,0.0,5.0,76,0.00,,,0.00,0,Wunderground v.1.15,2013-03-05 01:46:00,
2013-03-04 19:50:00,22.2,15.8,29.20,East,94,1.0,3.0,76,0.00,,,0.00,0,Wunderground v.1.15,2013-03-05 01:50:00,
2013-03-04 19:51:00,22.2,15.8,29.20,East,94,0.0,3.0,76,0.00,,,0.00,0,Wunderground v.1.15,2013-03-05 01:51:00,
2013-03-04 19:55:00,22.1,15.7,29.20,East,94,0.0,3.0,76,0.00,,,0.00,0,Wunderground v.1.15,2013-03-05 01:55:00,
2013-03-04 19:56:00,22.1,15.7,29.21,East,94,2.0,3.0,76,0.00,,,0.00,0,Wunderground v.1.15,2013-03-05 01:56:00,
2013-03-04 20:00:00,22.2,15.8,29.21,East,94,0.0,0.0,76,0.00,,,0.00,0,Wunderground v.1.15,2013-03-05 02:00:00,
2013-03-04 20:01:00,22.1,16.0,29.21,East,94,0.0,0.0,77,0.00,,,0.00,0,Wunderground v.1.15,2013-03-05 02:01:00,
2013-03-04 20:05:00,22.1,16.0,29.21,East,94,0.0,2.0,77,0.00,,,0.00,0,Wunderground v.1.15,2013-03-05 02:05:00,
2013-03-04 20:06:00,22.1,16.0,29.21,East,94,0.0,2.0,77,0.00,,,0.00,0,Wunderground v.1.15,2013-03-05 02:06:00,
2013-03-04 20:11:00,22.1,16.0,29.21,East,94,0.0,0.0,77,0.00,,,0.00,0,Wunderground v.1.15,2013-03-05 02:11:00,
2013-03-04 20:12:00,22.0,15.9,29.21,East,94,0.0,1.0,77,0.00,,,0.00,0,Wunderground v.1.15,2013-03-05 02:12:00,
2013-03-04 20:16:00,22.0,15.9,29.22,East,94,0.0,1.0,77,0.00,,,0.00,0,Wunderground v.1.15,2013-03-05 02:16:00,
2013-03-04 20:17:00,22.0,15.9,29.21,East,94,0.0,1.0,77,0.00,,,0.00,0,Wunderground v.1.15,2013-03-05 02:17:00,
2013-03-04 20:21:00,22.0,16.2,29.22,East,94,0.0,0.0,78,0.00,,,0.00,0,Wunderground v.1.15,2013-03-05 02:21:00,
2013-03-04 20:22:00,22.0,16.2,29.22,East,94,0.0,0.0,78,0.00,,,0.00,0,Wunderground v.1.15,2013-03-05 02:22:00,
2013-03-04 20:26:00,21.9,16.1,29.23,East,94,0.0,0.0,78,0.00,,,0.00,0,Wunderground v.1.15,2013-03-05 02:26:00,
2013-03-04 20:27:00,21.9,16.1,29.22,East,94,0.0,0.0,78,0.00,,,0.00,0,Wunderground v.1.15,2013-03-05 02:27:00,
2013-03-04 20:31:00,22.0,16.2,29.22,East,94,0.0,0.0,78,0.00,,,0.00,0,Wunderground v.1.15,2013-03-05 02:31:00,
2013-03-04 20:32:00,21.9,16.1,29.22,East,94,0.0,0.0,78,0.00,,,0.00,0,Wunderground v.1.15,2013-03-05 02:32:00,
2013-03-04 20:33:00,21.9,16.1,29.22,East,94,0.0,0.0,78,0.00,,,0.00,0,Wunderground v.1.15,2013-03-05 02:33:00,
2013-03-04 20:36:00,21.9,16.4,29.23,East,94,0.0,0.0,79,0.00,,,0.00,0,Wunderground v.1.15,2013-03-05 02:36:00,
2013-03-04 20:37:00,21.9,16.4,29.22,East,94,0.0,0.0,79,0.00,,,0.00,0,Wunderground v.1.15,2013-03-05 02:37:00,
2013-03-04 20:38:00,21.9,16.1,29.23,East,94,0.0,0.0,78,0.00,,,0.00,0,Wunderground v.1.15,2013-03-05 02:38:00,
2013-03-04 20:41:00,21.9,16.4,29.23,East,94,0.0,0.0,79,0.00,,,0.00,0,Wunderground v.1.15,2013-03-05 02:41:00,
2013-03-04 20:42:00,21.8,16.3,29.22,East,94,0.0,0.0,79,0.00,,,0.00,0,Wunderground v.1.15,2013-03-05 02:42:00,
2013-03-04 20:43:00,21.8,16.3,29.22,East,94,0.0,0.0,79,0.00,,,0.00,0,Wunderground v.1.15,2013-03-05 02:43:00,
2013-03-04 20:47:00,21.8,16.3,29.22,East,94,0.0,1.0,79,0.00,,,0.00,0,Wunderground v.1.15,2013-03-05 02:47:00,
2013-03-04 20:48:00,21.8,16.3,29.22,East,94,0.0,1.0,79,0.00,,,0.00,0,Wunderground v.1.15,2013-03-05 02:48:00,
2013-03-04 20:52:00,21.8,16.3,29.23,East,94,0.0,1.0,79,0.00,,,0.00,0,Wunderground v.1.15,2013-03-05 02:52:00,
2013-03-04 20:53:00,21.8,16.3,29.22,East,94,0.0,1.0,79,0.00,,,0.00,0,Wunderground v.1.15,2013-03-05 02:53:00,
2013-03-04 20:54:00,21.8,16.3,29.22,East,94,0.0,1.0,79,0.00,,,0.00,0,Wunderground v.1.15,2013-03-05 02:54:00,
2013-03-04 20:57:00,21.8,16.3,29.22,East,94,0.0,1.0,79,0.00,,,0.00,0,Wunderground v.1.15,2013-03-05 02:57:00,
2013-03-04 20:58:00,21.8,16.3,29.22,East,94,0.0,1.0,79,0.00,,,0.00,0,Wunderground v.1.15,2013-03-05 02:58:00,
2013-03-04 20:59:00,21.8,16.3,29.22,East,94,0.0,1.0,79,0.00,,,0.00,0,Wunderground v.1.15,2013-03-05 02:59:00,
2013-03-04 21:02:00,21.8,16.3,29.22,East,94,0.0,0.0,79,0.00,,,0.00,0,Wunderground v.1.15,2013-03-05 03:02:00,
2013-03-04 21:03:00,21.8,16.3,29.23,East,94,0.0,0.0,79,0.00,,,0.00,0,Wunderground v.1.15,2013-03-05 03:03:00,
2013-03-04 21:04:00,21.8,16.6,29.23,East,93,0.0,0.0,80,0.00,,,0.00,0,Wunderground v.1.15,2013-03-05 03:04:00,
2013-03-04 21:07:00,21.8,16.6,29.23,East,94,0.0,0.0,80,0.00,,,0.00,0,Wunderground v.1.15,2013-03-05 03:07:00,
2013-03-04 21:08:00,21.8,16.6,29.22,East,94,0.0,0.0,80,0.00,,,0.00,0,Wunderground v.1.15,2013-03-05 03:08:00,
2013-03-04 21:09:00,21.8,16.6,29.23,East,94,0.0,0.0,80,0.00,,,0.00,0,Wunderground v.1.15,2013-03-05 03:09:00,
2013-03-04 21:12:00,21.8,16.6,29.23,East,94,0.0,0.0,80,0.00,,,0.00,0,Wunderground v.1.15,2013-03-05 03:12:00,
2013-03-04 21:13:00,21.8,16.6,29.23,East,94,0.0,1.0,80,0.00,,,0.00,0,Wunderground v.1.15,2013-03-05 03:13:00,
2013-03-04 21:14:00,21.8,16.6,29.23,East,94,0.0,1.0,80,0.00,,,0.00,0,Wunderground v.1.15,2013-03-05 03:14:00,
2013-03-04 21:17:00,21.8,16.6,29.23,East,94,0.0,1.0,80,0.00,,,0.00,0,Wunderground v.1.15,2013-03-05 03:17:00,
2013-03-04 21:18:00,21.8,16.6,29.23,East,94,0.0,1.0,80,0.00,,,0.00,0,Wunderground v.1.15,2013-03-05 03:18:00,
2013-03-04 21:19:00,21.8,16.6,29.23,East,93,0.0,1.0,80,0.00,,,0.00,0,Wunderground v.1.15,2013-03-05 03:19:00,
2013-03-04 21:20:00,21.8,16.6,29.23,East,94,0.0,0.0,80,0.00,,,0.00,0,Wunderground v.1.15,2013-03-05 03:20:00,
2013-03-04 21:22:00,21.8,16.6,29.23,East,94,0.0,0.0,80,0.00,,,0.00,0,Wunderground v.1.15,2013-03-05 03:22:00,
2013-03-04 21:23:00,21.8,16.6,29.23,East,94,0.0,0.0,80,0.00,,,0.00,0,Wunderground v.1.15,2013-03-05 03:23:00,
2013-03-04 21:24:00,21.8,16.6,29.23,East,94,0.0,0.0,80,0.00,,,0.00,0,Wunderground v.1.15,2013-03-05 03:24:00,
2013-03-04 21:25:00,21.8,16.9,29.23,East,93,0.0,1.0,81,0.00,,,0.00,0,Wunderground v.1.15,2013-03-05 03:25:00,
2013-03-04 21:27:00,21.8,16.6,29.23,East,94,0.0,1.0,80,0.00,,,0.00,0,Wunderground v.1.15,2013-03-05 03:27:00,
2013-03-04 21:28:00,21.8,16.9,29.23,East,94,0.0,1.0,81,0.00,,,0.00,0,Wunderground v.1.15,2013-03-05 03:28:00,
2013-03-04 21:29:00,21.8,16.6,29.23,East,93,0.0,1.0,80,0.00,,,0.00,0,Wunderground v.1.15,2013-03-05 03:29:00,
2013-03-04 21:30:00,21.9,16.7,29.23,East,93,0.0,1.0,80,0.00,,,0.00,0,Wunderground v.1.15,2013-03-05 03:30:00,
2013-03-04 21:32:00,21.8,16.6,29.23,East,94,0.0,1.0,80,0.00,,,0.00,0,Wunderground v.1.15,2013-03-05 03:32:00,
2013-03-04 21:33:00,21.9,17.0,29.22,East,94,0.0,1.0,81,0.00,,,0.00,0,Wunderground v.1.15,2013-03-05 03:33:00,
2013-03-04 21:34:00,21.9,16.7,29.22,East,93,0.0,1.0,80,0.00,,,0.00,0,Wunderground v.1.15,2013-03-05 03:34:00,
2013-03-04 21:35:00,21.8,16.6,29.22,East,93,0.0,1.0,80,0.00,,,0.00,0,Wunderground v.1.15,2013-03-05 03:35:00,
2013-03-04 21:37:00,21.9,16.7,29.23,East,93,0.0,1.0,80,0.00,,,0.00,0,Wunderground v.1.15,2013-03-05 03:37:00,
2013-03-04 21:39:00,21.9,17.0,29.23,East,93,0.0,1.0,81,0.00,,,0.00,0,Wunderground v.1.15,2013-03-05 03:39:00,
2013-03-04 21:40:00,21.9,17.0,29.22,East,93,0.0,0.0,81,0.00,,,0.00,0,Wunderground v.1.15,2013-03-05 03:40:00,
2013-03-04 21:42:00,21.9,16.7,29.23,East,93,0.0,1.0,80,0.00,,,0.00,0,Wunderground v.1.15,2013-03-05 03:42:00,
2013-03-04 21:44:00,21.8,16.9,29.23,East,94,0.0,1.0,81,0.00,,,0.00,0,Wunderground v.1.15,2013-03-05 03:44:00,
2013-03-04 21:45:00,21.9,17.0,29.23,East,94,0.0,3.0,81,0.00,,,0.00,0,Wunderground v.1.15,2013-03-05 03:45:00,
2013-03-04 21:47:00,21.9,17.0,29.23,East,94,0.0,3.0,81,0.00,,,0.00,0,Wunderground v.1.15,2013-03-05 03:47:00,
2013-03-04 21:49:00,21.8,16.9,29.23,East,93,2.0,3.0,81,0.00,,,0.00,0,Wunderground v.1.15,2013-03-05 03:49:00,
2013-03-04 21:50:00,21.9,17.0,29.22,East,93,1.0,1.0,81,0.00,,,0.00,0,Wunderground v.1.15,2013-03-05 03:50:00,
2013-03-04 21:53:00,21.8,16.9,29.22,East,93,2.0,2.0,81,0.00,,,0.00,0,Wunderground v.1.15,2013-03-05 03:53:00,
2013-03-04 21:54:00,21.8,16.9,29.22,East,93,0.0,2.0,81,0.00,,,0.00,0,Wunderground v.1.15,2013-03-05 03:54:00,
2013-03-04 21:55:00,21.8,16.9,29.22,East,91,0.0,3.0,81,0.00,,,0.00,0,Wunderground v.1.15,2013-03-05 03:55:00,
2013-03-04 21:56:00,21.8,16.9,29.22,East,91,0.0,3.0,81,0.00,,,0.00,0,Wunderground v.1.15,2013-03-05 03:56:00,
2013-03-04 21:58:00,21.8,16.9,29.22,East,92,0.0,4.0,81,0.00,,,0.00,0,Wunderground v.1.15,2013-03-05 03:58:00,
2013-03-04 21:59:00,21.8,16.9,29.22,East,91,2.0,2.0,81,0.00,,,0.00,0,Wunderground v.1.15,2013-03-05 03:59:00,
2013-03-04 22:00:00,21.9,17.0,29.22,East,91,1.0,3.0,81,0.00,,,0.00,0,Wunderground v.1.15,2013-03-05 04:00:00,
2013-03-04 22:01:00,21.8,16.9,29.22,East,91,1.0,3.0,81,0.00,,,0.00,0,Wunderground v.1.15,2013-03-05 04:01:00,
2013-03-04 22:03:00,21.8,16.9,29.22,East,91,0.0,4.0,81,0.00,,,0.00,0,Wunderground v.1.15,2013-03-05 04:03:00,
2013-03-04 22:04:00,21.8,16.9,29.22,East,92,5.0,5.0,81,0.00,,,0.00,0,Wunderground v.1.15,2013-03-05 04:04:00,
2013-03-04 22:06:00,21.8,16.9,29.22,East,93,3.0,6.0,81,0.00,,,0.00,0,Wunderground v.1.15,2013-03-05 04:06:00,
2013-03-04 22:08:00,21.8,16.9,29.22,East,93,1.0,6.0,81,0.00,,,0.00,0,Wunderground v.1.15,2013-03-05 04:08:00,
2013-03-04 22:10:00,21.8,16.9,29.22,East,93,0.0,1.0,81,0.00,,,0.00,0,Wunderground v.1.15,2013-03-05 04:10:00,
2013-03-04 22:11:00,21.8,17.2,29.22,East,93,3.0,4.0,82,0.00,,,0.00,0,Wunderground v.1.15,2013-03-05 04:11:00,
2013-03-04 22:12:00,21.8,16.9,29.22,East,93,1.0,4.0,81,0.00,,,0.00,0,Wunderground v.1.15,2013-03-05 04:12:00,
2013-03-04 22:13:00,21.8,16.9,29.22,East,93,3.0,4.0,81,0.00,,,0.00,0,Wunderground v.1.15,2013-03-05 04:13:00,
2013-03-04 22:15:00,21.8,16.9,29.22,East,93,3.0,5.0,81,0.00,,,0.00,0,Wunderground v.1.15,2013-03-05 04:15:00,
2013-03-04 22:16:00,21.9,17.2,29.22,East,93,8.0,8.0,82,0.00,,,0.00,0,Wunderground v.1.15,2013-03-05 04:16:00,
2013-03-04 22:17:00,21.9,17.0,29.22,East,96,4.0,9.0,81,0.00,,,0.00,0,Wunderground v.1.15,2013-03-05 04:17:00,
2013-03-04 22:18:00,21.9,17.2,29.22,East,96,1.0,9.0,82,0.00,,,0.00,0,Wunderground v.1.15,2013-03-05 04:18:00,
2013-03-04 22:20:00,21.9,17.2,29.22,East,96,4.0,4.0,82,0.00,,,0.00,0,Wunderground v.1.15,2013-03-05 04:20:00,
2013-03-04 22:21:00,21.8,17.2,29.22,East,96,3.0,5.0,82,0.00,,,0.00,0,Wunderground v.1.15,2013-03-05 04:21:00,
2013-03-04 22:22:00,21.8,17.2,29.22,East,98,4.0,7.0,82,0.00,,,0.00,0,Wunderground v.1.15,2013-03-05 04:22:00,
2013-03-04 22:23:00,21.9,17.2,29.22,East,98,5.0,7.0,82,0.00,,,0.00,0,Wunderground v.1.15,2013-03-05 04:23:00,
2013-03-04 22:25:00,21.9,17.2,29.22,ESE,112,4.0,10.0,82,0.00,,,0.00,0,Wunderground v.1.15,2013-03-05 04:25:00,
2013-03-04 22:26:00,21.9,17.2,29.22,ESE,112,3.0,10.0,82,0.00,,,0.00,0,Wunderground v.1.15,2013-03-05 04:26:00,
2013-03-04 22:27:00,21.9,17.2,29.22,ESE,112,3.0,10.0,82,0.00,,,0.00,0,Wunderground v.1.15,2013-03-05 04:27:00,
2013-03-04 22:28:00,21.9,17.2,29.22,ESE,110,1.0,10.0,82,0.00,,,0.00,0,Wunderground v.1.15,2013-03-05 04:28:00,
2013-03-04 22:30:00,21.9,17.2,29.23,ESE,113,4.0,4.0,82,0.00,,,0.00,0,Wunderground v.1.15,2013-03-05 04:30:00,
2013-03-04 22:31:00,22.0,17.3,29.22,ESE,114,0.0,7.0,82,0.00,,,0.00,0,Wunderground v.1.15,2013-03-05 04:31:00,
2013-03-04 22:32:00,22.0,17.3,29.23,ESE,112,3.0,7.0,82,0.00,,,0.00,0,Wunderground v.1.15,2013-03-05 04:32:00,
2013-03-04 22:33:00,22.0,17.3,29.22,ESE,111,1.0,7.0,82,0.00,,,0.00,0,Wunderground v.1.15,2013-03-05 04:33:00,
2013-03-04 22:36:00,22.0,17.3,29.22,ESE,112,0.0,7.0,82,0.00,,,0.00,0,Wunderground v.1.15,2013-03-05 04:36:00,
2013-03-04 22:37:00,22.1,17.4,29.22,ESE,112,3.0,7.0,82,0.00,,,0.00,0,Wunderground v.1.15,2013-03-05 04:37:00,
2013-03-04 22:39:00,22.0,17.3,29.21,ESE,103,4.0,10.0,82,0.00,,,0.00,0,Wunderground v.1.15,2013-03-05 04:39:00,
2013-03-04 22:41:00,22.0,17.3,29.22,ESE,102,2.0,4.0,82,0.00,,,0.00,0,Wunderground v.1.15,2013-03-05 04:41:00,
2013-03-04 22:42:00,22.0,17.3,29.23,East,101,1.0,4.0,82,0.00,,,0.00,0,Wunderground v.1.15,2013-03-05 04:42:00,
2013-03-04 22:43:00,22.0,17.3,29.22,East,101,1.0,4.0,82,0.00,,,0.00,0,Wunderground v.1.15,2013-03-05 04:43:00,
2013-03-04 22:46:00,22.0,17.3,29.22,East,100,0.0,4.0,82,0.00,,,0.00,0,Wunderground v.1.15,2013-03-05 04:46:00,
2013-03-04 22:47:00,22.0,17.3,29.22,East,100,1.0,4.0,82,0.00,,,0.00,0,Wunderground v.1.15,2013-03-05 04:47:00,
2013-03-04 22:49:00,22.0,17.3,29.22,East,100,2.0,4.0,82,0.00,,,0.00,0,Wunderground v.1.15,2013-03-05 04:49:00,
2013-03-04 22:51:00,22.0,17.3,29.22,ESE,106,0.0,7.0,82,0.00,,,0.00,0,Wunderground v.1.15,2013-03-05 04:51:00,
2013-03-04 22:53:00,22.0,17.3,29.22,ESE,106,1.0,7.0,82,0.00,,,0.00,0,Wunderground v.1.15,2013-03-05 04:53:00,
2013-03-04 22:54:00,22.0,17.3,29.22,ESE,106,1.0,7.0,82,0.00,,,0.00,0,Wunderground v.1.15,2013-03-05 04:54:00,
2013-03-04 22:56:00,22.0,17.3,29.21,ESE,102,3.0,7.0,82,0.00,,,0.00,0,Wunderground v.1.15,2013-03-05 04:56:00,
2013-03-04 22:57:00,22.0,17.3,29.22,ESE,102,2.0,7.0,82,0.00,,,0.00,0,Wunderground v.1.15,2013-03-05 04:57:00,
2013-03-04 22:58:00,22.0,17.3,29.21,ESE,102,3.0,7.0,82,0.00,,,0.00,0,Wunderground v.1.15,2013-03-05 04:58:00,
2013-03-04 22:59:00,22.0,17.6,29.22,East,101,3.0,7.0,83,0.00,,,0.00,0,Wunderground v.1.15,2013-03-05 04:59:00,
2013-03-04 23:00:00,22.0,17.3,29.22,East,101,0.0,5.0,82,0.00,,,0.00,0,Wunderground v.1.15,2013-03-05 05:00:00,
2013-03-04 23:05:00,22.0,17.3,29.21,East,83,3.0,6.0,82,0.00,,,0.00,0,Wunderground v.1.15,2013-03-05 05:05:00,
2013-03-04 23:10:00,22.1,17.7,29.21,East,92,4.0,5.0,83,0.00,,,0.00,0,Wunderground v.1.15,2013-03-05 05:10:00,
2013-03-04 23:15:00,22.0,17.6,29.20,East,90,2.0,6.0,83,0.00,,,0.00,0,Wunderground v.1.15,2013-03-05 05:15:00,
2013-03-04 23:20:00,22.0,17.6,29.20,East,90,2.0,2.0,83,0.00,,,0.00,0,Wunderground v.1.15,2013-03-05 05:20:00,
2013-03-04 23:21:00,22.0,17.6,29.21,East,90,1.0,3.0,83,0.00,,,0.00,0,Wunderground v.1.15,2013-03-05 05:21:00,
2013-03-04 23:25:00,22.1,17.7,29.20,ENE,63,3.0,6.0,83,0.00,,,0.00,0,Wunderground v.1.15,2013-03-05 05:25:00,
2013-03-04 23:26:00,22.1,17.7,29.20,ENE,63,2.0,6.0,83,0.00,,,0.00,0,Wunderground v.1.15,2013-03-05 05:26:00,
2013-03-04 23:30:00,22.1,17.7,29.21,ENE,64,2.0,3.0,83,0.00,,,0.00,0,Wunderground v.1.15,2013-03-05 05:30:00,
2013-03-04 23:31:00,22.1,17.7,29.20,ENE,64,0.0,3.0,83,0.00,,,0.00,0,Wunderground v.1.15,2013-03-05 05:31:00,
2013-03-04 23:35:00,22.1,17.7,29.19,ENE,64,1.0,4.0,83,0.00,,,0.00,0,Wunderground v.1.15,2013-03-05 05:35:00,
2013-03-04 23:36:00,22.1,17.7,29.19,ENE,64,1.0,4.0,83,0.00,,,0.00,0,Wunderground v.1.15,2013-03-05 05:36:00,
2013-03-04 23:37:00,22.0,17.6,29.20,ENE,64,3.0,4.0,83,0.00,,,0.00,0,Wunderground v.1.15,2013-03-05 05:37:00,
2013-03-04 23:41:00,22.1,17.7,29.20,ENE,65,0.0,3.0,83,0.00,,,0.00,0,Wunderground v.1.15,2013-03-05 05:41:00,
2013-03-04 23:42:00,22.1,17.7,29.20,ENE,65,2.0,4.0,83,0.00,,,0.00,0,Wunderground v.1.15,2013-03-05 05:42:00,
2013-03-04 23:46:00,22.0,17.6,29.20,ENE,64,2.0,4.0,83,0.00,,,0.00,0,Wunderground v.1.15,2013-03-05 05:46:00,
2013-03-04 23:47:00,22.1,17.7,29.20,ENE,67,2.0,5.0,83,0.00,,,0.00,0,Wunderground v.1.15,2013-03-05 05:47:00,
2013-03-04 23:51:00,22.0,17.6,29.20,ENE,67,4.0,4.0,83,0.00,,,0.00,0,Wunderground v.1.15,2013-03-05 05:51:00,
2013-03-04 23:52:00,22.0,17.6,29.20,East,79,5.0,6.0,83,0.00,,,0.00,0,Wunderground v.1.15,2013-03-05 05:52:00,
2013-03-04 23:56:00,22.1,17.7,29.20,East,81,3.0,6.0,83,0.00,,,0.00,0,Wunderground v.1.15,2013-03-05 05:56:00,
2013-03-04 23:57:00,22.1,17.7,29.19,East,81,2.0,6.0,83,0.00,,,0.00,0,Wunderground v.1.15,2013-03-05 05:57:00,